GFSWCAN_850_spd_000.txt.gz
Wind_Speed
28 25 23 20 20 20 20 19 17 16 14 13 11 9 8 7 7 8 6 5 5 4 4 5 7 13 8 11 5 13 5 2 3 3 3 2 2 4 2 3 6 7 7 4 3 3 6 2 2 1 5 10 2 3
31 26 25 21 19 19 18 18 17 16 15 14 12 11 10 9 8 6 1 4 6 5 8 11 11 11 9 5 10 16 4 8 8 3 2 1 2 2 2 3 8 4 6 4 9 5 10 3 7 10 10 7 3 8
18 28 27 22 18 15 16 17 17 16 15 14 13 12 11 10 10 10 6 7 5 5 5 6 4 10 11 11 11 6 7 5 10 7 7 3 3 4 4 5 2 3 9 3 2 7 12 10 3 6 6 2 5 6
8 13 17 19 19 16 14 14 15 16 15 15 14 13 12 11 10 10 7 9 6 4 4 4 7 8 11 11 11 10 9 10 12 7 5 3 3 12 5 6 3 6 6 6 9 15 15 3 5 7 1 7 9 7
13 10 9 11 14 15 15 14 14 15 14 14 13 13 13 12 11 11 10 10 10 2 4 2 6 11 11 9 7 9 10 11 10 5 3 4 4 1 4 1 4 10 10 7 8 8 3 3 4 4 7 6 6 5
11 11 9 4 8 11 14 15 14 15 14 12 11 11 12 12 10 7 2 7 12 9 2 2 3 2 9 9 9 8 11 10 10 6 5 5 8 7 3 3 10 17 16 11 14 0 3 2 7 6 3 1 1 2
10 9 8 5 5 8 11 14 17 16 13 12 10 10 11 12 13 7 4 6 12 11 3 1 3 3 9 7 8 8 10 8 7 4 6 4 4 9 4 5 11 13 14 14 1 3 3 6 4 5 3 1 3 5
8 8 7 6 3 5 6 10 13 17 14 12 11 8 8 11 13 10 8 3 9 8 6 3 2 2 10 4 3 4 4 4 3 4 3 4 5 6 4 10 12 14 15 6 5 2 5 2 6 3 2 2 5 9
5 6 7 6 5 2 5 6 10 16 16 16 12 9 8 7 7 12 10 4 11 7 4 5 6 4 9 5 4 4 4 1 2 2 5 3 3 6 7 10 11 12 8 9 5 5 6 5 3 1 2 5 8 11
4 4 5 7 7 3 3 7 7 15 21 19 14 7 6 6 10 11 7 4 4 5 5 6 7 3 8 7 3 5 2 1 2 2 2 2 5 16 16 9 5 10 9 7 9 11 7 6 2 3 5 7 9 11
6 6 6 6 7 5 0 2 9 10 24 22 11 8 8 20 14 9 6 6 6 3 7 9 15 5 7 4 3 5 3 2 3 3 3 3 3 9 20 14 8 8 8 8 10 9 7 3 2 5 8 10 16 18
4 6 7 5 7 6 6 3 7 8 7 11 7 9 10 4 3 4 5 4 4 5 6 9 6 7 7 5 4 6 3 2 5 8 2 3 3 8 15 11 9 10 12 11 9 7 3 1 4 10 15 20 20 19
2 3 5 5 7 8 10 7 7 5 14 11 3 2 1 0 3 3 5 3 3 4 6 6 4 6 5 4 5 2 5 5 2 3 3 1 8 9 12 14 12 12 13 11 6 2 3 8 14 18 21 20 19 21
2 4 3 6 5 4 8 8 9 5 3 3 2 3 1 2 1 1 2 3 2 2 13 16 7 4 4 3 4 4 1 2 3 3 3 4 8 10 12 12 12 9 9 6 3 7 13 19 23 22 20 19 20 25
1 3 2 2 5 4 2 2 3 5 3 3 2 2 2 1 2 3 2 4 6 9 8 9 6 4 2 3 1 3 4 3 3 1 2 9 11 12 12 10 12 9 6 6 10 16 22 23 23 23 20 20 23 25
1 2 2 1 2 2 2 1 3 2 3 1 2 2 2 2 4 4 7 8 7 9 7 5 2 2 2 2 2 2 2 1 2 3 5 7 10 7 6 6 5 6 10 13 18 23 21 21 21 22 24 25 24 20
1 0 2 3 3 2 2 4 2 3 2 2 1 4 4 5 3 3 4 5 3 4 2 1 2 4 1 0 0 1 0 2 4 6 7 6 6 4 1 4 10 13 16 20 23 22 22 21 22 24 25 21 16 18
2 4 4 6 2 5 2 1 1 0 1 2 3 5 3 3 4 4 3 4 3 2 2 2 3 2 1 1 1 2 3 5 8 5 3 4 2 4 10 13 12 14 18 21 22 22 22 20 19 22 22 20 19 21
4 3 4 9 6 2 2 1 3 1 1 2 2 4 2 1 3 5 5 5 4 4 4 2 1 2 1 3 1 1 6 6 4 3 1 4 10 14 14 12 14 16 16 16 19 21 21 21 23 23 23 22 23 24
9 4 8 11 8 3 2 1 3 2 2 4 5 5 3 2 2 3 5 6 4 3 2 1 2 2 2 1 3 4 2 3 2 6 9 10 8 10 12 14 17 18 18 18 19 18 19 20 21 23 23 24 25 26
9 10 8 9 11 5 2 4 2 2 3 2 6 4 2 4 3 2 3 5 3 2 3 7 5 6 7 6 6 5 6 8 9 9 11 11 10 12 16 17 15 15 16 18 20 23 23 24 25 27 26 26 28 29
11 13 10 11 4 5 3 6 4 5 3 4 6 4 3 2 2 2 2 3 3 8 7 7 8 7 8 9 7 8 9 10 10 11 10 10 11 12 13 13 15 18 19 21 22 26 26 24 25 25 25 25 25 27
13 14 13 7 3 4 4 11 4 5 4 5 4 4 2 2 1 2 2 4 6 6 7 8 8 10 11 10 11 10 7 6 7 7 10 14 13 14 16 18 19 21 23 27 25 23 24 25 29 27 26 27 26 25
16 7 7 7 5 4 7 4 4 5 4 4 4 3 4 3 2 3 2 3 2 1 2 4 3 3 4 2 1 1 2 6 8 10 11 14 18 21 22 24 27 26 26 24 26 28 29 28 27 25 23 23 24 21
6 6 5 4 5 5 4 5 4 4 3 4 4 3 3 4 3 3 2 4 4 1 1 3 2 1 1 1 1 2 4 6 8 14 21 20 22 25 26 25 26 25 29 32 29 26 27 27 28 24 22 20 21 21
3 4 2 4 4 3 5 5 5 5 4 4 3 4 4 3 3 3 2 5 6 8 9 7 7 4 4 7 8 11 16 21 24 25 23 23 26 28 29 29 28 22 20 19 18 22 26 24 22 21 19 20 19 18
3 3 2 2 3 7 5 5 6 4 4 4 4 5 4 3 4 3 6 6 3 2 4 4 3 4 7 11 14 18 19 22 22 23 24 21 18 20 19 17 16 19 23 25 24 20 19 18 17 17 19 18 18 17
3 2 3 4 3 2 4 4 3 3 2 6 10 4 3 3 2 2 3 0 1 1 2 4 9 12 11 15 15 14 18 19 17 15 11 3 10 15 16 18 20 20 20 18 18 18 17 17 17 17 18 19 17 13
4 5 4 4 2 2 2 2 2 2 4 8 5 3 4 3 7 5 4 2 2 3 6 8 10 11 9 7 7 11 16 16 16 15 14 12 16 19 20 21 22 22 21 20 17 16 16 16 16 16 15 10 11 13
2 3 2 2 1 2 3 4 3 4 3 4 2 3 3 4 3 4 3 5 5 6 6 6 8 8 7 8 7 6 11 17 15 14 15 17 21 23 24 24 24 23 22 21 20 18 16 16 14 9 12 15 14 8
2 2 2 2 3 3 1 2 1 1 2 1 3 1 4 5 2 2 2 3 5 5 3 4 4 7 8 8 10 11 11 13 17 18 19 20 22 23 25 25 24 23 21 20 19 16 17 16 10 9 12 12 11 10
3 4 3 1 4 3 3 1 0 1 1 1 2 3 2 4 3 3 2 4 2 3 5 5 7 8 10 10 10 12 15 17 17 20 22 23 24 23 23 24 24 23 21 19 16 15 15 13 11 11 10 12 11 11
2 3 3 2 1 2 3 4 2 2 3 3 3 3 2 3 4 1 2 2 2 4 6 9 10 11 10 12 14 13 17 20 22 21 22 23 24 24 24 23 22 21 19 17 13 14 15 13 12 11 11 11 11 11

GFSWCAN_850_spd_003.txt.gz
Wind_Speed
27 29 28 27 25 23 22 20 18 16 14 12 11 10 9 9 9 9 9 6 6 4 6 9 13 14 13 15 5 11 4 1 4 3 3 3 2 4 3 6 6 7 6 4 2 2 7 10 3 7 6 7 8 7
28 25 23 24 24 23 22 20 18 16 14 13 12 10 9 9 8 9 9 7 7 4 6 7 10 10 14 15 15 20 4 6 8 4 1 2 1 1 3 3 4 2 7 6 8 6 10 16 10 11 9 10 12 7
30 28 24 21 21 21 21 20 18 17 15 13 12 11 9 9 9 8 8 7 7 8 7 6 6 7 7 11 16 9 7 7 9 5 7 3 3 4 4 5 1 3 11 3 4 5 7 15 13 11 8 6 5 4
31 30 26 22 18 18 17 16 16 16 15 14 13 11 10 9 8 8 8 6 6 5 5 3 6 9 9 12 15 10 13 9 14 8 5 3 3 12 4 4 4 6 4 1 3 4 4 7 10 13 10 5 8 10
19 22 24 23 18 16 15 15 15 14 14 13 13 13 12 10 9 8 5 5 5 2 4 4 8 8 8 9 9 10 10 14 12 5 3 3 5 3 2 2 2 8 5 3 6 3 5 8 13 9 6 7 7 7
15 11 13 16 17 16 15 13 13 13 12 12 11 11 11 10 9 7 3 7 9 8 4 1 3 2 8 10 7 8 11 10 8 5 5 5 5 7 3 3 7 20 21 21 6 8 9 11 8 6 7 8 11 7
17 15 11 8 10 12 13 13 12 11 12 10 10 9 10 10 11 9 4 5 11 11 4 3 1 6 8 9 10 12 11 8 9 5 6 4 4 9 3 5 8 14 15 13 10 11 9 7 3 8 11 7 4 6
15 14 12 10 7 6 9 11 12 13 10 9 9 7 8 10 12 10 6 2 9 8 5 3 2 1 10 4 3 2 3 5 0 3 4 3 3 3 3 11 16 20 20 17 15 10 7 6 9 13 8 9 5 1
13 13 12 10 7 6 6 8 11 13 11 9 7 5 4 5 7 9 7 5 9 7 4 4 5 4 9 4 3 3 2 1 0 1 5 3 2 5 8 12 13 11 13 16 12 9 9 15 15 12 8 4 2 5
12 11 12 13 10 5 6 7 9 12 11 11 10 5 4 6 5 7 3 2 4 7 6 5 8 2 7 5 3 4 1 1 1 3 3 2 4 17 12 10 7 8 15 18 17 17 16 14 12 7 4 3 6 11
12 11 11 12 10 7 4 6 8 12 17 14 6 5 7 12 8 6 5 3 3 2 6 9 17 5 9 4 3 6 2 1 2 4 4 3 4 7 12 16 10 13 10 8 12 16 15 13 9 5 5 8 11 17
10 11 11 11 12 11 9 7 10 9 9 12 8 11 11 6 5 3 3 1 2 4 2 5 4 6 7 5 5 6 3 2 5 8 2 4 3 4 11 15 12 10 15 15 16 16 11 7 4 4 9 14 17 18
9 11 12 11 14 16 15 12 9 8 14 11 3 3 2 1 2 4 5 2 0 2 1 3 3 4 5 4 4 3 5 5 8 3 4 3 2 11 14 17 18 16 18 15 11 8 4 1 6 12 16 17 18 18
9 10 12 13 11 13 13 13 10 4 2 3 3 3 1 2 2 1 1 1 2 4 5 10 6 4 3 2 3 4 2 2 3 3 4 1 10 13 15 12 15 15 10 9 4 1 4 11 16 17 17 17 18 18
7 8 10 12 10 7 5 5 7 6 4 3 3 3 2 2 2 1 3 1 2 4 7 5 4 3 2 2 0 3 1 2 2 1 2 5 9 12 13 11 10 9 6 4 5 7 13 17 18 19 17 18 19 21
9 8 8 9 9 8 7 5 4 5 4 2 3 2 3 3 1 2 6 6 7 7 5 5 2 1 2 1 1 1 3 1 2 3 9 8 7 7 7 5 4 1 5 8 11 15 18 17 19 20 20 19 18 16
9 6 4 4 5 6 7 8 4 4 3 2 2 4 3 2 3 3 4 5 4 2 1 2 3 1 1 0 0 1 2 2 7 5 11 6 7 7 5 1 4 7 10 12 15 17 19 19 19 19 19 19 18 16
7 5 3 2 3 2 2 3 3 2 3 3 1 4 4 4 3 4 3 3 2 2 2 2 4 1 1 1 2 1 2 5 9 4 3 5 4 1 4 11 12 12 13 15 17 17 17 18 19 20 21 21 22 22
4 1 2 2 1 3 3 2 2 2 1 0 1 2 2 3 2 1 1 2 2 3 3 2 2 1 1 2 4 6 8 10 7 7 3 1 4 9 11 10 11 12 14 15 16 17 18 18 19 20 22 23 24 25
2 3 3 1 2 1 2 2 1 2 2 4 3 4 2 0 2 3 3 2 2 2 1 0 2 2 3 3 4 6 5 6 5 6 7 9 9 8 9 12 15 16 17 17 17 18 20 21 21 22 22 22 22 24
2 4 4 5 4 4 2 2 2 2 3 3 5 4 2 3 1 1 2 2 1 1 3 4 3 2 3 4 5 5 5 5 7 8 9 9 9 10 11 10 11 12 14 17 21 23 22 24 25 22 22 23 24 24
4 3 4 4 1 3 4 7 3 6 4 3 7 4 3 3 2 2 1 3 3 5 4 4 5 6 5 4 5 5 6 7 6 6 3 6 10 12 14 14 17 19 20 22 24 26 28 25 23 25 25 29 27 25
5 4 3 3 3 4 3 11 4 7 4 6 5 3 2 2 2 3 2 3 4 4 4 4 4 5 5 7 8 9 6 2 4 6 7 8 9 12 15 17 18 20 25 27 25 24 23 24 28 28 26 26 25 22
5 2 3 4 8 5 5 4 5 4 5 4 3 3 3 3 3 3 2 2 4 5 2 1 1 1 1 5 4 8 6 3 2 2 5 10 20 24 22 23 23 23 25 28 30 31 30 26 24 21 25 25 22 20
5 6 5 4 3 5 4 3 4 4 3 4 3 3 4 5 2 3 3 3 2 1 3 3 3 3 10 11 6 2 1 4 8 11 17 22 24 26 26 23 19 16 21 22 22 23 23 24 27 26 23 22 19 18
6 9 6 9 5 4 6 5 5 5 3 3 3 5 5 3 2 4 1 9 9 6 6 5 5 5 6 4 4 8 13 16 19 21 19 17 18 17 18 20 21 21 20 22 23 24 24 23 21 19 17 16 17 17
4 4 3 3 2 3 2 3 5 4 3 4 4 5 3 3 4 3 8 8 7 4 2 1 3 1 3 6 10 12 15 19 19 17 13 9 10 10 14 18 20 23 23 23 22 22 21 20 20 19 18 18 18 18
2 3 3 4 2 2 2 2 1 2 2 6 12 3 5 4 2 3 5 5 5 4 3 1 4 6 5 7 7 11 14 14 12 9 4 3 11 16 18 19 20 21 22 20 19 19 18 18 19 18 17 17 15 10
3 4 3 4 2 2 2 1 1 3 3 9 4 1 4 5 5 6 5 3 3 5 5 6 5 4 4 3 6 10 12 14 15 16 16 18 21 22 24 25 24 23 23 23 21 18 16 15 18 16 13 12 11 14
2 3 2 1 1 2 4 4 2 4 4 5 4 6 7 8 7 7 4 3 2 1 1 3 6 6 4 4 4 6 13 16 18 19 19 20 23 25 25 27 27 26 24 22 21 20 17 17 12 9 13 15 14 14
1 1 1 2 3 2 1 2 2 1 1 2 2 3 7 8 6 5 3 2 3 2 3 3 4 5 6 7 9 12 13 15 18 20 21 24 25 26 26 25 25 25 24 22 20 15 16 18 14 13 14 14 13 12
2 4 5 1 4 2 2 1 1 2 2 1 2 2 4 4 4 2 3 3 2 2 3 4 5 8 9 8 8 10 13 18 21 24 26 26 25 24 23 23 22 21 20 19 16 12 16 18 16 14 14 12 11 10
1 1 2 1 2 2 3 4 1 1 2 2 4 4 3 3 3 2 1 1 2 3 6 7 8 10 11 11 13 16 16 18 20 21 20 21 22 22 22 22 21 20 18 16 14 14 16 17 15 13 12 11 10 10

GFSWCAN_850_spd_006.txt.gz
Wind_Speed
33 33 32 30 28 26 24 21 18 16 15 14 14 14 13 12 12 13 12 10 8 6 7 6 13 15 16 12 5 10 5 2 4 4 3 3 3 5 2 4 6 7 6 4 3 2 7 13 6 7 6 11 21 16
34 33 31 29 27 25 23 21 18 16 15 14 13 13 13 13 13 13 14 10 8 5 9 12 13 15 12 12 15 17 7 6 8 4 1 3 1 1 3 3 3 2 7 6 9 7 6 18 11 15 12 14 17 15
33 30 29 27 26 24 22 20 18 16 15 14 13 13 12 12 12 11 12 10 9 12 9 8 10 11 10 10 10 9 5 8 8 5 8 3 3 4 4 6 2 4 8 3 3 6 13 13 14 13 15 12 13 13
32 29 26 25 23 22 20 18 17 16 14 13 13 12 12 12 12 11 11 9 7 7 5 3 7 9 10 11 13 12 11 15 12 10 5 3 3 10 3 3 4 6 5 4 4 4 1 7 16 16 13 11 12 7
29 27 24 22 21 19 18 17 16 15 14 12 12 11 10 10 10 10 9 9 8 4 4 5 5 4 7 9 10 6 10 16 13 6 3 3 5 3 2 2 3 7 7 4 7 9 11 11 16 18 16 14 12 14
29 26 23 21 18 17 16 15 14 13 13 11 11 11 10 10 9 9 5 6 8 6 3 1 3 4 7 7 8 8 12 12 9 6 4 5 5 6 4 4 12 19 21 21 15 18 18 15 15 17 13 13 15 18
20 22 22 20 17 16 15 14 13 12 11 10 10 9 10 9 10 7 5 6 11 9 5 3 1 4 8 12 11 11 12 7 7 5 7 5 5 8 3 4 10 18 18 18 20 15 9 18 13 13 15 18 19 17
19 17 15 15 15 14 14 14 13 11 11 9 8 8 8 9 10 8 7 8 11 8 5 3 3 1 7 5 4 5 6 8 4 5 5 4 3 3 3 14 20 23 24 25 20 20 14 15 13 19 22 18 16 12
22 19 15 11 12 11 11 12 13 12 10 10 9 7 7 8 7 8 7 6 11 4 5 4 5 4 8 6 4 3 2 1 2 4 5 5 2 5 8 13 15 18 17 17 19 14 17 20 21 21 17 12 12 6
20 19 17 14 12 11 11 11 12 13 12 11 10 4 4 8 8 8 4 3 5 5 4 4 6 2 6 5 2 3 1 1 1 3 3 2 4 21 23 19 16 12 12 14 21 19 21 19 18 17 14 9 2 3
18 18 17 15 12 11 11 12 15 15 15 11 4 4 8 13 5 3 2 2 1 2 4 4 10 4 6 3 3 3 2 0 1 4 4 3 3 6 9 11 15 12 10 17 15 20 20 20 18 14 4 3 4 10
17 17 18 16 15 12 13 14 14 19 11 10 7 11 10 2 2 3 2 0 2 2 1 2 4 4 4 4 4 6 3 2 6 6 2 3 3 13 5 9 13 14 17 19 17 19 18 14 6 5 1 7 12 14
18 17 20 19 19 17 13 11 11 11 18 13 4 4 3 2 2 4 6 1 1 3 1 3 1 4 5 6 3 2 4 5 7 3 3 2 7 11 18 23 23 17 13 17 18 9 8 6 1 5 9 11 13 14
17 17 16 17 16 13 12 12 12 11 5 4 3 3 2 2 1 1 1 1 1 3 2 2 3 2 2 2 2 3 1 2 2 2 3 2 12 12 15 11 16 16 7 3 10 6 1 5 11 12 12 14 14 14
13 15 15 14 10 9 8 8 7 8 3 5 3 3 2 2 3 0 2 1 1 1 3 4 3 2 2 2 1 2 1 1 2 0 1 4 9 11 7 10 11 9 6 4 3 6 9 14 14 14 14 14 15 15
11 12 12 12 10 9 7 5 6 6 5 4 4 3 4 3 2 2 3 2 3 4 4 2 2 1 1 1 1 2 3 0 1 0 3 7 5 3 5 5 3 2 3 5 8 11 13 15 16 15 15 12 12 13
8 8 5 5 6 7 8 5 4 5 4 3 3 6 5 5 4 3 3 3 3 1 1 1 2 2 1 1 0 2 2 2 4 2 3 3 2 2 3 2 3 6 8 9 10 13 15 13 14 15 15 13 13 14
11 8 5 6 8 4 5 7 4 3 5 3 2 5 4 5 7 5 5 4 3 2 1 0 1 1 1 1 1 2 4 9 8 7 6 6 6 3 3 7 8 8 8 10 11 12 13 13 13 15 17 18 19 20
9 6 5 4 6 7 4 4 4 3 3 3 6 4 3 4 4 4 4 3 2 2 2 1 2 1 1 2 3 7 7 10 9 9 7 4 1 5 8 8 8 11 12 12 13 13 15 16 18 19 20 22 23 22
2 4 3 2 3 3 2 2 3 2 2 4 4 5 3 2 1 3 4 4 3 2 1 1 4 2 3 2 1 3 6 7 7 7 2 3 8 6 6 9 10 9 10 12 14 17 19 22 20 23 24 23 22 23
3 4 4 2 1 2 2 1 0 2 4 3 5 4 3 3 3 3 4 4 4 3 3 3 3 8 5 4 3 2 4 5 3 5 7 6 3 3 5 8 8 11 14 16 19 22 23 24 26 25 25 24 24 27
2 2 4 3 1 1 2 4 1 4 3 2 6 4 3 3 3 3 2 4 3 2 1 1 3 4 6 5 5 4 2 2 2 2 3 2 1 3 5 9 13 16 19 21 23 26 27 26 27 27 27 27 29 27
1 3 2 3 1 0 1 5 4 6 3 4 5 2 2 3 4 5 3 4 3 3 3 3 2 3 5 7 7 7 5 6 7 5 4 3 2 5 11 16 19 23 25 25 25 25 27 26 24 23 22 19 22 26
1 1 2 2 4 2 3 2 3 4 5 3 3 2 3 5 3 3 2 4 5 4 6 4 6 6 7 8 11 13 10 7 4 3 5 9 12 16 18 19 19 18 18 20 24 27 27 26 25 25 25 26 25 25
3 4 3 4 5 4 2 1 2 2 3 4 3 2 3 5 2 1 2 3 7 5 5 6 5 7 11 10 7 5 3 1 5 10 14 16 17 16 15 13 14 17 19 22 25 26 27 26 25 24 23 22 21 22
5 6 8 4 4 3 5 4 4 5 3 3 2 5 4 3 2 3 1 7 9 5 4 4 6 7 6 2 1 4 7 11 13 13 14 15 15 15 15 18 20 21 21 22 25 27 27 26 25 25 25 23 22 23
2 4 4 5 4 4 3 2 4 3 3 4 3 3 2 3 4 2 6 6 7 5 2 0 4 4 3 2 4 6 11 15 16 12 10 9 9 13 17 20 22 23 24 24 24 24 25 25 24 24 24 23 22 21
2 3 2 3 3 1 1 1 2 1 1 4 8 2 4 4 1 3 4 5 4 3 5 4 5 5 3 3 6 9 11 9 8 7 4 7 12 16 16 18 19 21 22 22 22 22 21 20 22 24 24 21 15 12
1 3 3 4 2 1 3 2 1 3 4 9 3 2 3 4 4 6 5 4 5 6 7 8 5 5 6 7 8 9 9 9 9 8 13 17 20 22 23 24 26 26 26 24 21 20 18 18 16 12 10 14 13 16
3 6 1 1 1 1 2 4 2 2 5 4 5 7 7 10 7 5 5 6 6 5 4 3 3 4 4 5 6 9 12 15 15 16 18 20 23 24 25 24 24 24 23 23 22 20 17 16 16 16 16 16 17 16
1 2 1 2 2 2 4 4 4 3 3 4 4 4 8 8 8 3 2 1 0 3 6 6 6 4 4 6 9 10 12 14 16 19 21 23 23 23 22 21 21 21 21 20 19 18 18 17 19 19 18 16 15 14
3 4 5 2 2 4 4 2 2 2 1 0 1 3 6 5 4 6 4 4 2 1 2 1 4 5 8 10 11 13 15 17 18 20 22 23 23 21 21 21 20 20 19 18 17 17 17 18 18 17 15 14 13 12
2 1 1 1 1 1 2 4 2 1 2 1 2 3 4 4 3 4 4 4 1 2 4 5 7 10 12 12 13 15 16 16 18 19 19 20 20 20 21 21 20 19 17 16 16 16 15 15 15 14 13 13 12 12

GFSWCAN_850_spd_009.txt.gz
Wind_Speed
42 40 38 36 33 30 28 24 23 21 19 18 19 19 21 28 21 18 13 11 8 6 8 10 11 15 12 10 5 10 5 1 4 4 3 4 3 5 2 4 5 7 6 4 3 1 8 11 5 7 6 7 20 28
40 38 36 34 31 29 26 23 21 19 18 17 18 18 19 21 20 17 17 12 9 7 7 12 11 13 14 13 15 17 6 6 7 4 1 3 2 2 2 3 2 3 7 5 9 6 4 18 8 21 9 9 18 24
37 35 34 31 29 27 24 22 19 18 17 16 16 16 16 17 17 15 17 15 11 18 11 9 10 10 11 10 9 9 6 8 7 6 8 3 3 4 4 6 1 4 7 3 2 5 15 17 22 21 15 16 14 19
35 33 31 29 27 24 22 20 18 17 15 15 15 15 15 15 14 13 15 14 9 10 5 3 9 9 7 10 9 6 5 13 12 9 5 3 3 9 3 3 4 4 8 4 5 10 12 15 19 22 23 19 15 17
33 31 29 27 24 23 22 19 17 15 14 13 13 13 13 13 13 12 12 12 10 4 5 7 9 6 5 4 4 4 6 13 10 5 3 3 5 4 2 1 3 9 7 4 7 17 12 14 14 17 22 24 19 20
30 28 27 26 23 21 19 17 16 14 13 12 12 12 12 12 13 13 5 7 8 9 4 2 4 6 6 6 7 9 11 10 8 6 4 5 6 7 4 4 13 18 22 24 21 27 20 21 18 17 24 20 19 17
28 27 25 24 23 20 18 17 15 13 12 11 11 10 10 11 12 5 5 8 10 8 4 4 1 4 9 9 8 10 11 7 7 5 7 5 7 9 4 4 23 24 24 23 23 21 19 22 14 17 20 18 18 19
27 24 21 20 19 18 17 16 15 13 12 11 10 10 10 10 10 8 7 8 11 6 4 4 2 1 7 4 5 5 5 6 3 3 3 3 5 3 3 19 26 25 24 26 28 26 23 17 13 20 19 19 23 23
25 24 21 18 16 16 15 14 14 13 12 12 12 12 11 7 5 8 7 6 9 4 6 3 5 4 6 3 3 3 3 2 2 4 3 5 2 5 8 12 15 15 14 18 17 16 15 13 16 19 24 20 15 14
20 19 19 17 16 16 16 16 15 14 14 13 14 5 4 7 10 10 4 2 3 2 2 3 4 2 3 3 2 2 2 1 1 3 4 2 3 12 17 15 19 21 15 14 10 11 16 20 24 25 17 11 9 6
23 21 17 15 15 14 15 16 17 16 14 10 4 4 13 14 5 3 3 4 3 2 2 2 1 2 3 3 2 3 2 0 2 4 3 2 3 5 18 15 11 6 8 8 9 11 17 20 17 15 13 3 6 7
25 25 21 17 16 16 16 15 16 16 9 7 11 15 9 2 3 5 2 2 2 2 1 2 2 3 2 3 4 3 2 1 5 3 1 3 2 8 8 11 11 10 11 17 17 22 21 21 15 7 4 5 7 8
25 26 25 23 18 15 15 12 15 11 15 13 4 3 2 4 3 4 5 1 2 2 1 2 1 1 3 3 4 2 4 4 4 2 3 1 6 12 18 21 22 16 13 17 21 20 14 10 5 0 3 6 8 9
21 20 20 18 17 15 13 13 15 13 7 4 3 3 1 1 2 2 1 2 3 2 3 3 4 2 1 2 2 2 0 1 2 2 2 2 4 7 10 10 14 13 12 16 15 10 6 5 5 6 8 8 9 9
18 15 13 15 12 10 10 9 10 8 4 5 3 3 2 3 3 2 2 3 3 3 3 3 4 1 2 2 1 1 1 1 1 1 1 5 7 8 9 7 9 11 11 8 5 4 6 7 8 8 10 11 12 12
11 11 14 12 11 10 7 8 10 6 5 4 4 4 5 4 2 3 5 4 3 3 4 3 2 2 1 1 2 3 3 1 1 1 6 7 6 5 8 7 5 5 4 3 6 9 11 12 13 12 12 11 10 12
3 10 10 7 7 9 7 8 5 5 5 3 3 7 5 7 5 4 5 5 5 2 1 2 3 3 1 1 1 1 1 2 3 5 4 1 3 6 6 5 6 7 8 8 8 9 10 11 11 12 13 14 14 16
15 10 7 7 5 5 9 6 5 5 5 4 3 5 5 6 8 7 6 5 3 3 3 2 3 2 2 2 1 2 8 11 8 9 5 5 4 4 2 3 3 3 4 6 7 7 9 11 13 16 17 19 21 23
13 10 9 8 10 5 4 5 5 4 5 4 7 6 4 5 5 5 5 4 4 3 3 3 3 2 2 4 5 9 12 13 11 9 5 5 4 2 4 2 2 5 4 6 7 9 11 13 16 19 21 24 27 27
8 9 9 8 10 5 4 4 4 4 3 3 2 3 3 2 2 4 6 5 5 2 3 1 4 4 5 3 2 3 6 7 8 9 9 5 2 1 1 1 1 3 7 10 11 15 19 21 23 25 26 27 28 30
6 8 8 7 6 6 5 4 5 3 3 2 2 3 1 0 2 3 4 4 4 3 2 2 4 7 6 3 3 3 4 5 5 5 4 3 4 4 3 4 5 8 12 16 20 23 25 25 27 28 29 28 27 27
10 8 6 6 3 3 3 3 2 2 1 2 3 3 2 3 3 3 2 4 4 1 1 1 3 7 7 7 6 6 5 4 4 4 4 5 5 5 6 7 10 14 17 19 21 21 22 23 25 26 27 27 24 25
5 8 5 5 4 4 2 1 3 4 1 2 2 2 1 2 2 5 2 4 4 6 5 2 3 5 8 8 9 8 7 7 7 7 7 5 3 5 8 11 14 16 18 19 19 20 22 23 25 26 26 27 27 27
6 3 3 4 3 3 4 2 1 3 3 2 2 2 2 4 4 3 2 3 2 3 5 6 6 7 7 7 6 8 8 6 5 3 0 4 7 9 11 13 14 15 16 18 20 22 23 25 26 27 27 27 27 26
2 1 1 2 1 2 1 2 3 2 3 3 2 2 3 5 2 2 2 1 7 6 6 5 7 8 8 10 8 6 5 3 2 5 7 9 10 10 10 11 13 16 19 22 24 26 28 28 29 29 28 27 27 27
1 3 5 4 3 2 4 2 3 5 3 3 4 4 4 3 3 2 1 3 7 7 6 6 9 10 8 5 3 2 4 6 8 7 7 8 10 11 13 16 19 19 21 24 27 29 29 28 28 28 29 29 27 26
2 3 3 4 4 5 4 4 4 4 3 4 3 3 2 3 2 2 2 4 7 8 5 2 0 0 1 1 4 4 7 10 9 7 6 7 10 14 17 20 23 24 24 24 24 25 26 26 25 24 25 24 21 18
2 2 1 3 4 4 2 2 2 1 1 2 5 1 2 1 2 2 2 5 4 4 3 2 3 4 1 1 3 6 9 9 7 5 7 11 13 16 17 19 19 20 20 20 21 20 21 21 19 18 19 21 22 21
1 4 3 3 2 2 4 3 4 4 5 4 2 2 3 3 4 7 7 4 2 3 3 4 3 3 3 4 5 5 4 3 3 7 11 14 17 18 20 21 22 21 21 20 19 19 19 19 18 19 19 20 21 21
3 7 2 1 1 1 2 6 6 6 4 3 5 7 7 9 7 5 2 3 5 5 2 1 3 5 5 6 7 9 11 13 14 15 16 18 19 20 21 22 22 21 21 21 21 21 20 18 18 18 19 18 17 17
3 2 2 2 0 1 4 5 4 4 3 4 3 4 8 7 7 5 2 2 2 3 4 5 5 5 6 7 9 11 13 14 16 17 18 20 21 21 22 22 21 21 21 21 21 20 20 19 19 19 18 17 17 16
4 4 5 2 1 3 4 2 2 0 1 0 2 2 5 5 4 4 2 2 3 4 3 4 5 7 9 11 13 14 16 18 18 19 19 20 20 22 22 22 21 21 20 19 19 19 18 18 18 17 17 16 15 15
2 2 2 2 2 1 4 6 2 2 2 2 3 3 3 2 3 3 2 1 2 3 4 5 6 8 11 12 14 15 16 17 19 19 20 20 21 22 22 21 20 19 19 18 18 17 16 16 16 15 15 14 14 14

GFSWCAN_850_spd_012.txt.gz
Wind_Speed
43 42 41 38 35 33 30 28 26 24 22 22 24 28 32 35 30 20 16 11 6 6 12 10 9 12 11 9 5 11 5 1 4 4 3 4 3 5 2 4 6 7 6 4 3 2 7 8 4 7 6 6 14 23
41 40 37 35 33 31 29 26 25 22 22 20 23 24 30 34 29 19 14 10 10 7 8 10 9 11 8 9 15 20 6 7 8 5 1 3 2 2 2 3 2 2 6 4 9 6 5 14 8 14 5 7 13 21
40 38 35 33 31 29 27 24 23 22 21 21 21 21 29 31 29 25 18 14 11 17 12 9 9 9 8 9 9 9 6 8 7 6 9 3 3 4 4 6 1 4 6 3 2 4 13 18 20 28 21 20 22 18
37 35 33 31 28 27 25 23 22 21 19 19 18 20 24 26 24 20 19 16 11 10 6 4 9 9 8 11 7 6 5 14 12 8 5 3 3 9 3 3 3 4 7 4 5 12 18 22 22 22 25 26 24 21
35 32 30 29 26 23 22 20 19 20 19 19 18 15 17 18 17 17 19 14 14 5 6 8 10 8 7 7 5 4 5 13 9 5 3 3 5 4 2 2 3 10 7 4 6 21 13 18 21 18 16 18 21 21
32 31 28 26 24 19 19 18 17 18 18 18 18 17 18 19 18 16 7 9 10 10 6 2 4 5 7 7 7 10 9 7 6 5 4 5 5 6 4 3 13 18 23 24 21 27 23 24 22 19 21 24 22 17
29 28 26 26 22 17 17 16 15 16 16 16 15 15 14 14 14 7 6 10 10 9 4 4 3 4 6 7 6 6 6 3 3 3 4 3 4 6 3 3 23 20 22 24 25 23 20 24 21 17 16 14 12 16
25 24 23 24 18 14 15 14 14 14 15 14 13 13 12 11 11 9 9 11 11 6 4 4 2 2 3 3 2 2 3 3 1 2 1 2 6 3 3 12 17 17 17 17 16 15 18 18 16 10 8 12 15 19
22 21 20 22 23 12 13 14 13 13 14 14 13 12 12 8 5 8 9 8 7 4 6 3 4 3 2 2 2 2 1 2 1 2 2 5 1 4 2 14 19 19 14 16 17 14 9 6 5 8 11 15 24 21
21 19 18 18 18 16 12 12 13 14 14 15 16 5 5 7 12 10 4 3 3 4 5 4 3 2 1 2 3 1 3 0 1 3 2 2 2 3 20 15 14 14 13 11 8 4 10 15 16 20 18 19 16 13
23 21 18 18 18 17 16 15 15 16 17 12 4 4 14 14 5 3 4 5 5 3 4 3 2 3 2 2 2 1 2 0 1 3 2 1 2 7 15 15 13 11 9 8 4 10 14 19 24 21 18 15 9 4
18 20 20 18 18 18 18 16 14 13 8 8 12 15 8 3 4 6 2 2 2 3 2 3 3 3 3 3 4 3 2 1 4 0 0 1 2 6 10 18 20 20 22 27 26 28 26 24 20 17 10 3 4 7
24 22 18 19 18 15 15 16 12 17 22 11 5 4 3 5 4 4 4 0 1 2 3 3 2 2 3 2 5 2 3 3 3 1 1 2 5 6 11 16 21 18 21 23 23 21 18 15 10 4 3 5 6 8
21 19 18 16 15 14 14 14 14 15 6 6 4 4 2 2 3 2 1 2 3 2 4 5 4 2 3 3 2 2 0 0 2 3 2 1 3 7 11 12 15 17 16 15 13 9 6 4 4 5 6 7 7 7
16 15 14 16 11 9 10 11 9 9 4 4 4 3 2 4 4 4 5 5 5 5 5 5 5 2 2 2 1 2 2 2 2 3 1 6 8 10 11 13 12 10 7 4 3 4 5 6 6 6 7 8 9 10
12 11 17 15 11 8 7 6 8 5 5 5 5 3 5 4 3 4 6 5 5 5 6 4 2 2 1 1 2 3 3 4 2 1 11 8 9 8 9 8 8 3 2 2 3 4 6 6 7 8 8 10 11 14
5 15 13 11 10 9 10 12 5 6 5 4 4 8 6 8 5 4 5 4 5 2 1 2 3 4 2 2 1 1 3 4 12 10 9 7 7 7 5 3 2 2 3 3 4 4 5 7 9 11 15 16 17 18
16 12 10 8 6 9 9 6 6 6 6 5 4 4 7 7 8 6 5 5 1 2 2 1 4 2 3 4 2 2 5 11 12 13 6 6 5 5 3 1 1 2 4 5 5 6 8 11 13 16 19 22 25 25
17 14 12 9 7 4 4 6 6 5 6 5 7 7 5 6 7 6 6 3 3 3 4 2 3 2 3 4 5 14 11 12 12 9 4 5 6 3 1 2 3 3 2 3 6 7 9 13 16 21 25 27 29 29
13 13 14 13 8 5 5 5 5 5 3 3 3 3 4 3 1 2 4 3 3 3 1 1 4 1 1 3 2 4 8 10 8 8 9 8 5 4 4 3 3 2 4 6 9 13 17 21 24 26 26 27 28 29
10 13 14 13 12 10 6 4 5 4 3 2 3 2 1 2 2 0 1 2 1 2 1 2 3 3 5 7 7 8 7 7 8 6 10 9 6 6 6 3 2 5 9 12 16 19 21 23 23 24 26 27 27 27
14 11 8 7 6 5 6 7 4 3 2 3 1 0 0 1 1 1 2 2 2 1 2 3 2 5 8 7 7 7 6 5 5 4 5 8 9 6 3 4 7 10 14 16 18 19 20 21 23 24 26 28 29 29
10 9 6 8 5 5 3 3 3 2 2 1 1 1 1 1 1 2 2 2 2 4 6 4 1 5 7 5 7 11 9 5 3 5 7 5 2 2 5 9 12 14 15 17 18 19 21 22 24 27 28 29 30 31
8 4 5 5 6 3 4 4 3 3 2 1 1 2 1 1 3 1 1 2 3 3 4 5 4 7 10 10 7 6 6 5 5 4 2 2 4 7 9 10 12 14 16 17 19 20 23 25 26 27 27 28 29 30
3 5 3 3 3 2 3 3 2 1 2 2 1 3 3 5 1 1 1 2 1 2 4 8 11 7 7 7 6 5 4 2 3 3 2 4 6 7 8 10 12 15 18 21 23 25 25 25 25 26 26 26 26 26
5 5 3 1 2 2 1 1 2 2 2 2 4 2 3 3 2 1 2 5 3 6 6 5 8 10 8 6 4 3 3 3 4 4 3 3 5 7 10 13 16 18 20 23 24 24 24 24 23 23 23 23 22 23
2 2 2 1 2 3 4 6 5 3 2 3 1 0 1 1 2 3 4 7 5 6 6 6 5 4 3 2 3 4 5 5 3 3 3 5 9 12 15 17 19 20 20 20 20 22 22 22 21 21 21 22 23 24
2 2 1 3 4 4 3 1 1 2 3 3 1 3 2 2 1 3 4 4 4 3 3 4 5 6 3 2 3 5 5 4 3 5 8 10 13 14 15 16 17 18 18 18 19 19 19 20 20 21 21 23 24 24
0 3 3 2 2 2 3 3 4 4 6 2 2 2 2 3 3 5 5 3 1 3 4 4 4 3 3 3 4 4 4 5 7 8 10 11 13 15 16 17 18 18 18 18 18 19 19 18 19 20 21 21 21 20
3 6 2 1 1 0 1 5 5 5 5 3 4 5 6 7 5 4 2 2 3 3 2 3 4 5 4 4 4 5 7 9 10 13 15 17 18 19 18 18 19 19 19 19 19 18 17 17 16 16 16 17 17 16
3 3 2 2 0 1 3 5 4 2 2 1 1 3 7 7 7 5 3 2 0 3 5 5 4 3 5 6 7 9 11 13 15 16 17 18 18 19 19 20 20 20 20 19 19 19 18 17 17 17 17 17 16 16
3 3 4 2 0 2 5 2 3 2 1 1 1 3 6 5 4 4 1 1 2 3 3 3 3 4 6 9 12 14 16 17 16 16 16 17 18 19 20 21 20 19 18 17 17 17 17 17 17 17 17 16 16 16
2 2 2 2 2 2 3 6 2 0 1 2 3 2 2 2 3 3 1 1 2 3 3 5 7 10 12 14 16 16 16 16 16 17 18 19 19 20 20 19 18 17 17 17 17 17 16 16 16 16 16 16 16 16

GFSWCAN_850_spd_018.txt.gz
Wind_Speed
31 30 26 26 34 34 26 34 32 32 35 37 38 39 41 46 43 25 24 17 14 5 7 12 11 10 10 11 6 12 7 3 2 2 2 3 2 4 3 2 4 5 6 3 2 3 4 6 5 3 4 5 6 8
21 30 34 31 30 33 32 30 31 33 35 35 36 38 41 46 39 24 23 18 14 6 6 11 14 16 17 14 12 20 1 8 9 3 1 3 2 1 1 2 3 3 3 1 6 1 3 8 7 5 6 10 11 11
34 38 38 35 33 29 28 29 29 30 30 32 34 38 42 49 39 23 17 14 9 8 7 7 5 11 13 15 16 9 6 9 8 7 7 2 3 4 4 4 3 4 5 3 2 2 8 9 11 13 12 14 15 14
36 33 31 31 30 29 27 26 26 26 28 30 34 37 42 48 43 19 14 12 12 9 6 3 9 8 9 14 15 12 13 17 17 8 4 3 3 4 3 0 2 1 8 4 5 12 9 7 8 7 9 11 13 13
34 33 32 31 30 29 27 24 22 23 26 29 33 37 42 44 40 19 17 10 16 3 5 7 11 6 8 10 10 10 16 18 10 5 3 2 5 4 2 0 3 7 3 4 5 10 6 10 9 14 14 13 11 11
33 31 30 29 27 26 24 22 19 22 25 29 33 37 38 43 31 26 11 9 12 12 6 4 5 5 11 13 16 18 15 10 5 5 4 4 3 4 4 4 5 4 6 7 7 15 15 14 8 10 7 9 8 7
32 31 29 28 28 25 23 21 19 20 29 31 36 40 45 35 31 30 11 12 16 12 5 4 3 4 9 11 9 8 8 5 4 5 4 4 3 6 3 4 5 9 10 8 7 9 2 10 5 8 8 10 11 14
30 29 28 27 27 26 26 23 24 28 30 34 36 37 35 32 29 20 11 16 15 6 5 4 2 3 5 3 3 3 3 4 6 4 4 3 4 1 3 5 8 11 11 1 12 7 5 6 9 11 11 11 15 20
30 29 27 26 25 25 21 23 29 33 34 33 30 29 27 23 13 14 18 13 9 4 5 3 5 4 3 4 4 3 3 3 2 2 2 4 2 4 2 6 8 9 8 6 6 9 10 13 14 16 19 21 22 19
25 29 29 23 20 23 19 18 25 24 24 26 25 12 5 6 23 17 4 3 3 6 6 4 2 3 2 3 3 3 3 2 2 2 5 2 2 4 3 2 4 6 8 7 7 10 13 19 21 18 19 18 15 11
16 15 17 22 23 17 15 14 20 18 19 17 6 5 16 14 6 4 5 6 5 3 5 4 3 4 3 2 2 2 2 1 3 2 3 3 2 4 5 6 7 5 7 11 12 17 18 19 18 16 12 8 5 1
16 17 17 17 13 11 11 10 14 16 6 9 15 17 7 4 4 6 3 2 2 2 2 2 3 5 4 4 4 3 2 1 3 4 2 2 3 10 11 11 12 13 16 19 19 19 15 11 8 5 3 4 7 7
14 14 15 15 15 15 10 8 11 14 22 15 6 4 6 7 5 2 5 2 2 1 2 3 2 3 3 4 5 2 3 2 4 2 2 2 14 16 17 17 16 14 14 14 12 11 8 5 4 4 6 7 8 9
20 16 15 17 17 15 15 13 15 14 8 5 6 5 3 2 4 3 2 3 3 4 9 9 5 2 2 3 1 3 2 2 3 4 3 4 17 20 18 13 13 11 11 10 8 6 5 5 6 6 7 7 8 8
15 15 13 15 13 12 11 11 9 10 7 6 6 4 4 3 6 4 5 5 5 6 6 6 5 2 2 3 2 3 3 3 3 0 2 13 19 21 17 15 12 10 6 3 3 3 4 4 4 4 5 7 8 10
14 12 14 15 15 13 8 5 6 10 8 6 8 3 5 5 4 6 10 10 5 5 6 4 2 2 2 2 3 2 2 2 2 3 12 18 20 18 18 12 9 6 3 2 3 3 3 2 1 2 4 7 12 16
19 21 15 13 11 11 11 12 8 9 6 5 5 10 10 11 7 5 6 5 6 4 2 1 1 3 2 2 3 1 0 2 8 13 16 15 18 18 16 13 9 5 5 5 4 4 3 2 2 5 8 13 17 18
20 15 13 13 14 15 14 10 8 7 7 9 5 7 13 10 11 11 11 10 5 3 2 2 2 1 1 2 2 2 3 7 12 16 15 16 16 14 12 6 7 7 6 6 5 4 2 3 6 10 14 17 17 18
18 13 8 7 5 4 6 8 8 6 7 5 7 9 10 11 14 12 11 10 10 7 4 2 2 2 2 2 1 5 11 11 16 15 15 13 13 12 10 10 9 8 7 5 3 1 4 7 10 12 15 18 20 21
15 13 11 5 3 6 6 7 7 7 4 4 7 8 6 6 7 8 6 6 7 3 4 3 3 3 3 2 2 4 9 13 15 14 11 11 12 12 11 11 10 7 5 2 1 4 6 8 11 14 17 20 22 22
13 13 10 8 18 13 8 5 7 6 5 5 6 5 4 6 6 6 6 4 4 4 3 4 5 5 3 2 2 6 9 13 10 11 13 16 15 14 12 10 8 6 3 1 4 7 9 11 13 16 18 19 19 19
14 11 11 13 9 7 8 9 5 4 3 4 2 2 3 2 3 4 4 3 4 5 5 5 6 6 3 2 5 7 8 10 9 8 11 14 14 12 11 9 6 3 1 3 6 8 10 13 16 17 18 17 17 16
9 11 9 9 6 7 4 6 4 5 2 2 1 1 3 2 3 3 3 4 5 12 9 8 8 6 3 2 3 5 7 7 10 11 13 12 12 11 9 6 3 2 3 5 8 10 12 15 16 16 16 16 16 16
10 7 7 6 8 4 4 5 4 4 3 2 2 2 2 3 3 3 3 5 10 13 12 8 5 4 5 5 7 9 9 10 12 12 10 7 6 5 4 3 2 4 7 9 11 12 14 15 16 16 16 16 16 17
6 10 6 6 6 5 4 3 3 2 2 3 3 2 2 3 2 3 3 5 10 13 12 9 6 7 9 10 9 8 7 6 6 4 7 6 5 4 3 5 7 9 10 11 12 13 14 15 16 16 16 16 17 17
6 9 5 4 3 3 2 2 1 3 2 2 2 2 2 2 2 3 2 6 7 10 11 10 8 7 8 7 6 5 5 5 5 4 6 5 4 3 4 7 9 12 13 14 15 15 15 16 16 16 16 15 16 18
4 5 5 5 3 3 2 2 1 0 1 1 1 0 1 2 2 3 2 5 4 6 8 8 7 6 6 6 6 6 5 6 6 4 3 3 5 7 9 11 12 14 15 16 16 16 16 16 17 16 16 16 16 18
4 4 2 3 3 3 2 2 2 2 2 3 2 1 1 2 2 2 2 3 4 4 4 5 6 6 5 5 5 5 4 4 4 4 5 7 10 12 13 14 14 14 14 15 15 16 17 17 17 16 16 17 17 17
3 4 1 3 3 3 3 3 2 2 4 2 1 2 3 3 4 5 4 4 2 1 3 3 3 4 4 4 4 3 3 4 5 7 8 9 11 13 14 14 14 15 15 15 15 16 16 16 16 16 16 16 16 16
4 6 2 2 2 1 2 2 2 3 3 3 4 4 4 4 4 5 4 3 2 1 1 2 2 1 2 2 3 4 5 7 9 10 11 11 13 14 14 15 15 16 16 15 14 14 14 14 15 15 15 15 15 15
3 3 1 2 1 1 1 3 2 3 3 2 3 3 5 5 6 4 3 1 0 1 1 2 2 2 3 3 5 7 9 11 13 14 14 14 14 14 14 15 16 16 16 16 15 15 15 14 14 14 14 14 14 14
4 3 3 2 1 3 5 1 1 2 1 2 2 3 4 3 3 1 0 1 2 2 2 2 2 3 5 7 10 12 13 14 16 16 15 15 15 15 15 16 16 15 16 16 15 15 15 14 14 14 13 13 13 13
2 3 4 3 3 2 3 5 2 1 2 3 3 3 2 2 3 2 2 2 3 3 3 3 4 7 9 11 14 15 17 18 17 17 16 16 16 15 16 16 16 16 15 15 15 14 14 13 13 12 12 12 13 13

GFSWCAN_850_spd_021.txt.gz
Wind_Speed
31 30 28 26 27 28 28 33 32 35 47 44 40 46 51 53 52 25 6 20 17 13 13 11 13 18 21 20 7 13 8 3 3 3 3 3 1 4 2 2 5 6 6 3 3 3 5 6 6 1 5 8 9 10
25 25 25 27 30 31 33 34 34 35 34 37 43 47 50 53 50 20 6 22 18 12 8 9 14 15 14 15 16 20 6 13 10 4 1 2 2 2 0 3 3 4 4 1 6 1 4 5 4 6 7 9 11 11
27 29 27 23 23 36 33 29 30 36 38 40 43 44 46 51 47 23 12 17 16 8 8 8 7 12 18 15 15 8 8 10 9 5 6 3 3 5 4 5 3 4 3 3 1 2 3 6 8 5 5 8 11 12
22 28 27 24 25 19 30 38 37 36 37 39 39 40 43 50 44 13 7 18 13 9 5 3 5 5 12 15 16 11 12 15 15 9 4 3 3 5 4 1 2 3 7 5 6 11 7 6 3 4 10 11 12 11
32 34 34 33 32 32 27 28 31 32 33 34 35 38 41 50 41 11 15 16 14 7 5 8 7 3 3 10 11 11 13 16 12 5 2 2 5 4 2 0 3 5 2 3 4 7 6 8 10 8 8 7 7 7
30 27 26 24 23 23 24 26 28 30 32 34 36 38 45 52 43 11 5 9 12 9 6 4 4 5 9 11 13 13 12 8 6 6 4 5 4 4 4 4 5 3 3 3 5 9 8 6 6 8 8 9 9 10
31 29 27 25 24 21 21 25 28 30 32 33 35 37 45 49 40 11 5 8 9 10 4 5 5 4 7 7 5 7 7 5 4 5 3 4 4 6 3 3 7 2 3 1 5 8 6 10 6 7 9 12 14 14
32 31 27 25 24 22 22 27 30 32 33 33 35 37 38 39 28 15 6 6 15 11 4 4 3 4 3 3 4 3 3 4 7 4 3 3 4 2 4 7 3 4 3 6 5 5 6 7 8 10 9 10 15 17
33 32 34 34 31 30 34 33 33 35 36 38 40 40 42 21 11 10 10 2 12 8 2 3 6 4 4 3 3 3 3 3 2 2 3 4 2 4 4 4 3 4 3 2 6 8 10 11 12 13 13 14 17 15
32 30 31 30 29 32 40 42 39 36 38 41 36 18 8 9 17 13 8 5 2 2 2 3 3 4 3 3 3 3 3 3 2 1 5 2 3 5 4 4 5 5 4 8 9 10 12 13 13 13 12 11 9 8
31 27 24 23 24 23 27 34 34 36 33 22 7 5 17 19 18 7 3 1 2 2 5 4 4 5 3 2 3 2 3 1 4 3 3 4 3 6 6 6 5 6 8 8 13 15 13 13 13 11 8 7 5 6
17 20 22 21 22 23 22 19 21 19 14 11 15 25 21 6 7 4 1 0 2 2 3 3 4 5 4 3 4 3 3 2 3 6 3 3 4 11 10 9 10 13 15 17 17 16 13 10 8 7 5 6 6 7
13 13 12 16 21 19 19 20 22 27 28 20 9 4 3 1 4 2 3 2 2 2 2 4 3 3 4 4 5 2 3 2 5 2 3 3 12 14 14 16 17 16 16 15 13 11 10 8 6 6 7 7 7 7
15 14 12 12 13 13 18 20 18 11 9 7 5 5 5 3 4 3 3 3 2 3 8 9 5 3 3 3 1 4 2 2 3 3 3 4 17 19 17 17 16 14 15 12 10 8 7 7 6 6 6 6 5 7
17 14 12 15 15 13 12 11 6 4 7 7 7 4 4 3 6 4 5 5 5 4 5 5 5 4 2 3 2 4 3 3 4 0 2 14 23 23 18 16 14 14 11 8 6 6 6 6 5 4 3 4 6 9
14 18 18 16 13 12 12 10 12 10 7 6 8 4 4 5 6 9 11 10 5 4 5 5 2 2 2 2 3 3 2 2 2 2 9 21 24 21 17 14 12 9 8 8 6 6 6 5 2 0 3 5 9 12
14 18 14 14 13 11 9 11 10 10 7 5 5 12 10 11 9 7 8 6 6 4 2 2 2 4 1 1 2 3 3 3 7 10 14 19 23 21 15 14 11 9 8 8 7 6 5 4 2 3 5 9 12 13
20 15 13 15 14 13 19 13 8 7 7 9 5 10 15 13 12 11 13 12 6 4 3 2 1 0 3 2 3 2 5 7 10 12 11 14 17 19 14 11 9 9 10 7 5 4 4 2 1 3 7 10 10 10
14 10 7 5 6 6 7 8 7 6 8 5 8 11 11 13 13 12 13 12 8 6 4 2 2 3 3 6 6 4 8 9 12 13 13 14 16 15 11 11 12 9 7 6 6 4 2 3 3 5 8 10 11 10
12 11 5 2 2 6 7 7 7 7 5 4 7 8 6 6 9 11 10 12 8 4 6 4 4 5 6 7 4 5 3 8 12 14 13 14 14 14 13 10 9 8 7 6 5 4 2 1 5 8 12 12 12 12
11 11 8 11 20 14 8 6 7 6 5 5 5 6 5 7 9 8 9 9 8 7 5 7 10 9 8 6 4 1 3 7 10 10 12 11 11 13 13 11 10 8 7 5 3 1 2 4 8 11 13 12 13 10
15 10 13 14 9 7 8 9 6 5 4 5 4 4 4 4 5 8 6 8 6 9 9 10 11 9 8 8 5 1 2 2 3 7 10 13 11 11 9 8 8 8 6 3 1 3 6 10 12 13 13 13 11 10
11 12 10 10 7 7 4 6 5 4 2 2 2 2 3 3 3 3 4 6 6 10 11 8 8 7 7 7 6 4 2 2 5 6 9 10 10 9 9 9 8 6 3 3 6 8 10 12 13 14 11 12 11 11
11 7 8 7 9 4 4 5 4 3 3 3 2 2 2 3 4 4 4 4 7 10 12 10 6 5 7 8 10 12 11 9 11 13 11 9 9 8 6 4 3 4 5 7 9 10 11 11 13 11 12 12 11 12
6 10 7 7 6 4 3 3 4 3 3 3 2 3 3 3 1 3 2 3 8 10 11 11 10 10 9 9 8 9 8 7 7 7 8 8 8 6 6 6 5 6 7 9 10 11 11 13 12 12 13 11 12 14
7 10 5 5 4 3 3 2 3 3 2 2 3 2 1 1 2 3 3 4 6 8 10 10 9 7 8 7 5 5 6 6 6 4 5 5 4 4 3 3 4 8 14 14 14 13 13 13 14 15 13 12 14 14
5 5 5 6 3 4 4 4 3 2 2 3 2 1 1 1 2 3 4 5 3 4 6 7 7 7 6 6 5 5 5 4 4 4 3 3 4 5 6 7 9 13 15 15 15 15 15 15 15 14 13 12 12 12
5 6 4 4 4 4 3 2 2 2 2 3 2 2 2 5 3 3 3 2 3 3 4 5 5 4 3 3 3 3 3 3 4 5 7 9 11 11 12 14 15 15 16 16 16 16 15 15 13 12 12 13 13 12
5 4 3 5 3 4 4 3 2 3 4 4 3 2 3 3 3 3 1 2 2 2 3 4 5 5 4 4 3 3 4 5 4 5 5 4 5 8 17 16 15 15 15 15 15 15 15 14 14 14 14 14 13 12
5 6 2 3 2 2 3 4 5 2 4 5 4 5 5 4 3 5 4 3 2 1 1 1 2 2 3 3 3 5 6 7 9 10 9 9 11 15 15 14 14 15 16 15 15 14 14 14 13 11 11 12 11 13
4 4 2 3 2 3 2 3 2 2 2 4 5 5 6 5 4 3 3 2 2 1 2 3 3 3 3 3 5 6 7 12 14 15 15 15 15 14 13 15 15 16 16 15 15 15 14 15 13 11 11 13 14 14
4 4 4 2 3 3 5 3 1 0 3 2 3 3 3 3 3 1 2 5 3 3 2 3 3 3 5 7 9 11 12 14 16 17 17 16 16 16 16 16 17 16 16 17 17 15 15 15 14 13 13 13 14 14
3 4 4 3 2 2 3 4 1 1 2 2 3 3 3 3 3 1 2 3 2 2 2 2 4 6 9 11 14 15 17 19 19 19 19 19 19 18 17 17 17 17 18 18 17 16 15 15 14 14 14 14 14 14

GFSWCAN_850_spd_024.txt.gz
Wind_Speed
37 37 35 29 31 34 30 26 26 27 30 31 33 30 43 46 51 49 50 30 4 10 24 33 29 25 16 22 7 13 7 4 3 2 3 2 2 3 2 6 6 6 6 3 2 2 5 5 5 3 4 5 9 9
31 29 28 29 30 28 25 26 27 31 30 33 32 35 45 42 46 49 43 26 15 23 12 17 16 19 14 14 14 20 7 13 9 3 1 3 2 2 3 2 10 3 4 2 7 4 5 5 3 3 4 6 6 7
28 28 29 28 27 27 26 28 28 31 32 34 34 41 33 41 41 48 31 27 6 11 12 13 6 12 19 12 16 7 6 12 9 7 5 2 3 4 3 4 3 4 5 1 2 4 6 4 3 2 3 7 9 11
26 26 26 25 25 26 28 30 31 31 37 39 47 46 41 45 44 39 50 27 17 16 6 6 5 5 13 14 16 11 9 10 15 12 5 3 3 6 3 2 3 0 9 6 6 9 6 6 12 9 7 7 7 9
23 23 26 26 31 36 33 27 29 34 36 34 42 45 46 44 44 45 34 16 7 4 5 8 6 1 8 12 13 11 14 17 14 5 3 2 4 4 3 1 1 8 3 3 3 9 3 10 11 9 10 10 10 9
24 26 21 18 23 25 23 28 33 35 32 41 44 44 40 39 36 26 7 3 12 9 8 3 4 5 6 9 10 11 12 12 9 5 3 5 4 4 3 3 6 11 7 6 3 5 4 10 12 12 13 12 12 12
23 30 33 31 30 32 37 34 35 41 43 43 39 37 38 38 33 3 3 9 12 10 6 4 4 4 12 14 11 8 9 5 6 5 3 5 4 4 3 3 14 7 5 4 4 3 11 7 10 11 12 13 12 12
25 24 25 27 30 32 32 34 34 35 36 36 37 36 36 37 26 4 7 14 12 8 7 3 0 5 5 4 4 3 5 5 6 4 3 3 4 1 2 10 10 6 5 7 6 9 14 15 14 13 12 12 14 15
41 42 31 26 29 31 33 34 34 35 36 37 34 30 30 28 8 2 11 9 7 10 3 2 4 4 5 4 4 3 2 2 3 2 2 5 1 3 6 10 8 5 6 8 10 13 14 14 14 13 13 14 14 12
39 40 42 42 33 33 34 35 35 36 39 40 42 20 12 13 14 11 5 4 7 7 4 1 2 3 3 4 3 3 3 3 2 2 4 1 2 6 6 7 8 5 6 11 16 15 14 14 14 13 13 13 12 11
31 35 35 40 40 42 39 38 38 42 47 26 9 7 20 17 6 5 4 4 5 1 2 1 3 3 4 2 3 3 2 0 4 3 4 3 3 7 8 9 6 7 10 9 12 14 14 15 15 13 10 9 8 6
21 22 28 34 32 33 40 43 41 25 16 13 21 21 10 5 6 5 3 2 2 1 1 1 3 4 4 4 4 3 3 2 3 6 3 4 4 13 12 10 10 11 15 17 19 20 17 14 12 10 9 9 9 9
22 24 21 19 24 32 30 24 25 30 34 27 9 6 5 4 4 1 4 1 1 2 4 4 2 3 4 5 5 3 3 2 9 2 3 2 12 14 14 16 17 18 19 18 17 14 13 12 11 9 10 10 8 6
21 21 23 21 23 17 22 23 23 21 10 7 5 5 4 3 3 0 2 1 3 2 9 8 4 4 4 4 1 4 1 3 3 3 3 4 15 19 18 21 21 17 17 17 14 12 12 11 11 10 9 8 5 5
19 18 19 20 13 15 11 17 15 12 9 8 6 4 3 3 5 2 2 4 4 6 6 4 6 5 2 4 2 4 2 3 4 1 2 12 22 22 21 18 19 19 14 12 11 11 11 10 9 8 6 4 4 6
19 20 24 20 18 12 12 15 9 13 7 6 7 3 2 3 6 10 12 11 8 8 7 6 3 3 4 2 1 1 3 1 2 2 9 22 25 23 18 16 17 15 14 11 10 11 10 8 6 4 2 3 5 8
21 25 19 18 17 14 16 19 9 9 7 5 6 13 11 10 9 8 10 11 9 5 3 3 4 3 0 1 3 4 3 2 4 9 16 23 26 22 18 18 17 14 12 10 9 9 8 6 4 2 1 5 6 10
22 16 14 14 20 20 22 13 8 7 8 11 5 13 19 15 13 15 15 16 8 4 4 3 2 3 4 3 3 3 5 8 11 9 10 17 21 17 16 15 12 13 13 10 7 6 6 4 4 1 1 5 4 7
14 11 8 8 7 6 8 9 8 6 9 5 11 13 12 12 15 14 13 12 13 10 5 4 5 4 3 6 7 11 5 7 10 12 10 11 18 14 13 15 14 12 9 8 8 6 6 7 5 2 4 6 8 9
15 12 7 5 5 7 7 7 7 7 5 4 8 11 7 6 11 13 18 16 12 7 7 5 4 6 6 9 9 10 7 3 8 12 13 13 14 13 12 13 10 13 14 12 10 8 4 2 3 5 8 9 10 11
13 13 11 14 24 15 8 6 7 5 6 5 5 7 5 10 13 14 14 14 15 7 6 9 14 11 10 9 8 7 7 2 5 8 13 13 13 15 13 11 13 11 12 10 5 6 5 3 4 7 9 10 12 10
15 10 14 15 10 8 9 11 6 5 5 5 5 6 5 5 6 11 11 11 7 9 8 10 11 9 10 13 11 9 6 5 7 12 16 15 13 11 11 9 10 10 8 7 5 2 3 6 9 10 10 12 10 9
11 12 10 10 7 7 4 6 5 4 3 2 3 4 4 4 5 6 6 6 6 13 12 10 10 10 11 12 12 11 9 7 7 7 7 7 6 6 7 6 7 6 4 3 3 4 7 8 11 11 10 12 11 11
11 8 8 7 9 5 4 5 4 4 5 3 3 3 3 4 6 5 4 5 8 9 13 11 12 8 11 12 14 15 14 12 14 14 12 10 10 11 9 7 6 4 5 5 5 6 8 11 12 11 12 12 10 13
7 10 7 7 7 4 3 3 4 3 3 3 2 3 3 3 2 3 3 4 9 10 11 12 10 11 11 10 10 12 11 10 10 11 12 12 11 9 8 8 7 6 7 8 10 11 11 12 12 12 13 11 12 14
7 11 6 6 5 4 3 3 3 3 2 2 3 2 1 1 2 4 3 6 7 7 9 10 11 8 9 9 7 7 8 9 6 7 8 7 6 6 5 3 3 10 13 14 14 13 12 12 13 13 12 11 12 15
5 6 6 7 3 2 4 5 3 4 4 4 2 3 2 1 4 4 5 5 4 5 6 7 8 7 7 7 8 8 8 6 6 6 6 6 6 6 5 6 8 12 13 14 13 13 13 13 13 13 12 12 13 16
6 8 5 7 6 8 3 3 3 4 3 5 4 3 4 5 4 4 4 2 3 4 6 7 7 5 4 4 4 4 5 6 8 9 11 12 14 14 14 15 16 17 16 16 15 15 14 14 14 12 12 15 14 12
6 6 5 6 5 6 7 6 3 4 6 5 5 3 4 4 4 5 2 3 4 3 3 5 8 10 10 9 5 5 6 6 5 5 5 4 4 10 18 17 16 15 15 14 12 12 13 15 15 14 14 14 13 12
6 7 3 5 4 3 4 7 6 4 7 7 5 7 7 6 5 5 5 3 3 4 4 4 4 2 4 4 5 9 8 9 10 10 10 10 13 16 16 14 16 15 15 14 14 13 13 13 16 10 9 13 14 16
4 5 3 4 4 3 2 2 2 5 5 6 9 10 7 6 5 6 7 8 4 5 5 6 4 4 4 4 6 5 5 14 16 16 15 15 15 14 13 16 16 16 16 15 15 15 14 15 14 13 11 13 15 15
5 4 5 3 4 4 4 3 1 0 4 4 4 4 4 5 4 3 5 9 4 6 5 3 2 4 6 8 9 11 13 15 15 17 18 18 17 17 18 18 17 15 15 16 15 16 15 15 16 15 14 14 15 17
2 3 3 2 1 2 4 4 1 3 4 4 4 4 5 5 5 2 6 6 4 2 2 3 5 7 9 10 14 15 14 15 19 21 21 22 22 21 18 17 17 18 18 18 18 16 14 14 15 16 18 16 15 16

GFSWCAN_850_spd_027.txt.gz
Wind_Speed
39 35 32 31 34 31 27 28 32 28 36 39 44 40 39 33 39 42 44 26 14 7 12 25 36 23 21 21 7 16 7 8 2 4 4 3 3 5 4 7 7 6 6 3 3 3 6 9 4 6 6 10 9 8
31 30 32 26 28 30 23 24 22 24 30 34 36 36 34 34 40 46 39 41 22 15 12 8 37 21 30 29 24 26 10 14 10 4 2 4 2 2 3 3 3 1 6 5 6 6 9 8 13 14 11 12 12 11
29 29 28 25 26 26 26 25 24 28 29 33 32 34 33 35 45 46 42 21 24 14 25 16 17 21 26 28 28 13 10 11 6 9 6 3 4 4 3 4 3 1 6 4 5 2 3 8 19 21 17 14 10 9
26 26 24 23 25 26 27 24 25 25 29 32 30 35 29 35 40 45 38 36 15 5 2 3 13 21 25 29 27 19 21 17 21 18 7 3 4 7 4 4 4 5 5 6 2 3 21 18 17 16 15 13 10 8
23 23 23 22 22 25 24 24 26 30 31 31 34 29 32 34 34 35 36 43 24 13 4 2 17 12 18 23 24 19 19 24 18 5 4 3 6 5 1 3 1 4 5 4 4 5 16 11 16 10 11 11 9 6
21 22 24 26 25 24 25 27 27 28 30 31 31 32 35 26 33 38 17 40 33 31 8 3 6 9 12 15 17 16 18 14 7 6 2 4 4 5 3 3 1 14 15 14 8 11 20 18 12 9 11 10 9 9
25 25 26 26 30 31 29 30 28 27 28 29 32 36 30 31 40 34 7 2 17 28 9 2 3 7 13 15 13 11 12 6 6 5 3 5 3 6 3 4 11 17 15 15 17 24 19 10 13 12 11 13 12 14
23 25 27 23 20 24 30 30 30 34 32 32 36 31 28 35 35 37 19 7 21 9 7 4 2 3 5 5 4 4 5 5 8 4 3 4 3 3 2 9 20 18 18 15 10 13 24 24 18 16 13 16 19 21
22 19 22 27 25 25 25 30 35 34 33 36 35 32 28 24 14 15 16 19 14 8 5 4 3 3 1 5 4 4 5 3 3 2 1 4 1 2 2 16 16 19 10 22 24 23 20 19 21 16 18 20 21 18
32 32 27 28 30 34 36 39 41 38 36 36 34 13 11 20 11 7 8 5 6 7 6 2 3 1 3 3 2 3 3 3 2 2 3 3 2 10 15 17 14 13 20 25 26 21 22 21 21 21 20 18 16 12
35 32 32 32 32 33 38 39 37 39 37 19 3 6 20 13 6 8 5 5 3 4 3 4 4 2 2 3 2 2 2 1 3 3 4 1 1 5 12 15 11 13 16 15 13 15 17 25 25 20 17 15 13 11
39 39 34 30 30 34 38 40 41 38 14 6 17 17 11 6 8 6 3 2 3 3 1 2 6 4 4 3 4 2 3 2 2 4 3 3 1 18 14 11 11 11 14 20 22 25 24 22 16 15 16 15 13 12
35 40 35 36 39 44 47 42 27 38 37 29 7 6 6 8 7 3 1 2 3 4 5 5 3 4 3 4 5 3 3 1 9 2 3 1 13 16 16 18 21 21 25 27 25 22 18 17 16 14 15 13 13 11
23 27 38 40 34 32 26 42 29 24 14 8 6 6 4 3 4 4 3 3 3 3 7 10 5 3 2 4 1 4 1 2 2 3 3 3 16 19 19 24 26 25 20 17 18 18 18 17 17 16 14 12 9 7
23 20 21 24 25 23 20 14 8 16 9 8 8 5 4 3 6 2 4 5 4 4 5 5 3 4 1 3 2 3 2 2 1 2 1 12 19 21 25 25 25 24 18 18 18 17 17 16 16 16 12 9 6 3
23 20 23 16 12 13 12 11 13 16 9 7 9 4 6 4 6 7 11 7 5 5 6 4 3 3 3 2 2 3 4 2 2 2 7 17 21 22 23 24 21 19 17 15 16 16 16 15 12 11 9 6 4 2
24 28 20 18 14 9 8 12 12 12 8 6 6 14 10 9 8 9 9 9 6 5 2 3 3 1 1 3 3 3 2 2 3 7 13 20 23 20 20 20 18 16 15 15 14 14 13 12 11 8 5 3 1 3
27 17 15 20 22 19 27 19 9 8 8 11 5 11 19 16 11 12 13 12 2 4 2 2 3 4 4 4 3 3 6 8 6 7 12 19 19 19 18 20 20 17 13 12 12 12 13 12 11 9 6 8 6 5
16 12 10 10 7 8 8 9 9 7 9 7 12 13 11 14 21 20 17 13 19 15 7 6 5 4 3 6 5 12 9 4 10 9 9 15 15 17 18 16 15 15 12 11 15 16 15 16 12 8 5 3 4 7
18 16 11 7 5 8 8 8 8 8 5 5 10 15 9 9 19 25 22 21 19 9 9 5 4 8 7 11 11 12 8 5 7 10 9 10 12 13 16 16 16 15 16 17 16 11 12 11 7 3 3 5 6 7
15 15 13 23 30 17 10 6 8 6 7 5 8 9 7 18 22 19 17 21 20 8 6 12 13 12 10 11 12 12 13 5 4 7 12 14 14 14 15 15 17 16 14 13 14 12 8 3 1 4 6 8 8 7
16 14 17 16 11 9 9 11 6 6 5 4 6 7 6 6 8 12 15 16 8 12 10 12 12 12 14 16 14 11 11 10 11 14 17 17 18 17 16 14 15 15 11 7 5 3 1 2 4 6 7 9 8 8
13 13 12 12 8 8 5 8 6 5 3 2 4 4 4 4 8 6 7 7 7 16 15 7 10 10 10 12 13 14 13 11 13 12 11 11 11 10 9 8 7 8 7 6 3 3 4 6 7 8 10 11 9 9
12 9 9 8 11 4 5 6 5 5 5 4 3 3 3 5 5 6 3 5 8 11 15 15 10 12 13 15 18 17 15 13 15 16 14 12 13 13 10 10 9 7 6 4 2 3 6 9 10 11 11 10 8 10
8 12 8 7 9 5 4 4 5 4 4 4 4 3 3 3 3 3 3 5 10 9 16 12 9 12 13 10 11 12 11 10 9 12 13 11 10 9 9 8 6 4 5 6 7 8 8 10 11 12 11 10 9 10
8 13 6 6 5 5 4 3 3 3 1 2 3 1 3 2 4 4 3 6 8 7 8 11 9 8 10 8 9 9 9 7 7 8 10 7 5 4 3 2 6 8 12 13 13 12 12 12 13 12 11 8 8 12
6 6 7 7 3 4 5 4 5 5 5 4 3 4 2 3 4 4 4 7 5 5 5 4 5 6 9 10 10 9 8 8 8 9 9 8 8 7 6 9 11 12 13 12 12 12 12 12 13 12 11 11 13 15
7 8 5 10 9 13 4 4 4 5 3 7 6 5 3 4 3 4 5 3 5 6 7 9 9 7 5 4 3 3 3 5 8 8 8 8 11 12 16 19 17 17 17 17 16 15 15 14 15 15 14 13 12 10
7 7 4 8 6 7 9 6 4 5 7 6 4 3 4 5 9 7 6 2 8 8 5 7 7 8 8 9 7 8 7 6 3 2 1 2 8 13 16 16 16 16 18 17 15 14 12 13 14 16 15 11 11 12
7 9 3 5 5 4 6 7 6 7 10 7 7 12 13 9 7 4 3 4 5 5 5 2 1 2 3 2 6 6 6 8 10 11 11 12 14 16 15 15 17 19 19 18 17 16 15 14 15 13 12 10 10 14
4 6 4 5 5 4 2 4 7 8 7 11 11 10 11 8 9 9 8 8 5 8 4 6 5 4 3 3 5 7 10 13 16 16 16 17 17 17 17 18 19 19 17 15 16 18 18 16 14 14 16 16 14 16
5 5 4 3 4 4 5 3 3 3 5 7 6 6 7 6 5 4 7 4 5 3 2 3 5 5 7 8 11 13 14 15 17 18 21 21 19 19 20 17 16 16 16 17 18 19 19 17 15 13 15 19 21 22
5 7 8 5 3 3 6 4 2 4 6 4 5 7 6 5 4 3 5 7 6 7 8 8 8 8 10 13 15 16 17 17 20 21 21 21 21 20 19 20 21 20 18 17 16 15 15 13 12 13 16 20 22 22

GFSWCAN_850_spd_030.txt.gz
Wind_Speed
38 39 39 38 37 38 37 36 36 36 40 38 37 38 38 48 48 53 29 30 18 7 18 13 30 29 24 28 9 8 7 1 3 4 3 4 3 5 4 7 7 7 6 3 3 2 7 8 5 7 7 12 16 13
35 35 35 34 33 30 31 29 31 32 34 37 39 36 45 43 43 45 29 28 19 12 12 10 17 24 47 38 24 19 7 8 8 4 1 3 2 2 4 3 3 1 7 6 8 6 6 4 5 21 21 19 15 16
28 27 28 30 29 25 27 29 27 31 33 38 37 37 49 40 40 38 33 23 34 17 20 8 8 14 30 43 32 11 8 12 10 8 5 2 4 4 4 4 4 2 7 4 4 4 4 16 19 22 20 20 18 15
22 25 24 25 24 23 26 25 22 32 31 34 38 38 37 34 27 34 34 30 18 11 3 5 6 11 23 33 42 36 30 22 18 14 4 3 4 6 4 4 5 6 9 6 4 1 17 13 18 22 21 19 17 15
21 21 22 25 23 22 24 21 22 28 28 33 34 31 33 32 29 27 27 31 24 4 5 11 5 10 21 31 37 36 36 30 20 5 4 2 4 5 2 3 1 7 7 5 5 19 10 10 17 18 18 15 13 11
23 21 19 20 21 23 23 22 24 24 29 31 30 31 28 25 26 23 11 26 29 13 4 3 4 7 12 23 27 35 36 28 15 8 3 5 4 4 4 3 3 7 13 16 10 20 16 25 19 14 16 14 13 13
20 21 22 22 23 23 21 21 22 26 30 29 28 28 23 26 31 19 8 5 31 26 2 3 6 0 8 20 12 18 20 10 7 5 3 4 3 6 3 4 9 14 16 18 24 29 22 22 14 15 15 17 16 19
21 21 22 23 23 22 21 23 23 24 25 26 25 22 27 23 22 25 14 4 22 21 7 1 4 3 7 7 5 5 5 6 8 4 4 3 4 3 1 3 23 23 24 26 26 8 20 23 22 19 18 22 24 25
24 22 22 23 24 22 25 27 26 23 22 26 26 30 24 17 12 21 29 9 8 13 3 3 1 2 3 5 5 6 7 4 4 2 1 2 2 1 2 13 22 27 13 24 19 20 26 25 23 22 23 23 24 23
28 32 30 31 28 29 28 25 25 30 30 31 31 11 5 12 16 29 13 7 12 10 6 2 1 1 4 5 6 4 6 2 2 2 3 3 1 4 11 13 20 12 21 28 32 24 26 26 24 25 23 21 22 20
26 25 25 29 30 32 34 36 36 33 36 30 7 7 18 17 16 6 3 5 1 3 3 2 4 3 5 4 3 5 1 2 3 3 4 2 2 3 11 13 13 19 24 19 11 23 21 20 26 26 23 20 18 16
29 32 34 36 37 38 38 40 38 38 25 11 19 24 24 8 4 3 3 2 4 2 3 2 5 7 6 6 4 2 2 2 2 3 3 3 1 17 16 15 17 20 20 20 18 20 22 24 24 22 21 19 17 15
30 32 31 36 42 45 50 52 34 31 40 31 9 9 3 3 7 4 1 2 3 5 2 2 4 5 4 5 5 3 3 2 2 2 2 1 9 16 20 20 20 19 19 21 23 23 25 23 20 16 20 18 17 16
32 35 34 33 35 40 36 23 17 8 3 9 7 6 5 5 4 2 2 1 0 1 7 8 5 4 5 4 2 4 1 2 2 4 4 2 15 18 22 23 24 23 21 24 25 24 23 21 21 17 16 17 15 14
37 40 38 33 23 21 17 10 10 4 10 9 9 6 6 4 7 4 3 4 5 4 3 7 6 5 2 3 2 3 2 1 1 1 1 10 18 24 26 27 26 25 23 22 22 22 21 16 16 19 17 15 12 10
16 25 26 21 19 19 15 10 12 13 8 8 10 4 6 4 6 8 9 7 3 5 5 4 3 3 3 2 2 3 2 2 1 1 3 15 21 25 26 26 23 20 20 24 21 17 16 19 19 18 16 13 10 7
23 25 17 9 6 12 9 13 12 11 8 6 5 13 7 4 3 6 5 6 5 4 2 2 4 2 0 3 3 4 3 2 3 4 10 18 25 25 25 23 21 22 20 17 18 19 20 18 16 15 14 12 8 5
29 25 22 20 14 13 16 16 9 9 9 9 4 11 16 17 13 14 21 15 5 4 4 4 5 5 5 4 3 4 6 7 5 7 11 16 19 21 21 19 16 15 17 18 18 18 17 17 15 13 10 9 7 4
14 12 13 10 2 8 8 10 9 6 11 7 16 19 21 20 27 25 23 22 25 18 8 6 5 4 3 5 5 14 13 7 7 9 9 11 14 16 15 16 17 17 17 17 18 20 19 16 14 11 9 9 7 5
16 9 8 9 6 8 8 8 8 8 6 6 15 22 17 14 21 28 26 26 24 12 10 5 4 8 7 13 14 13 10 7 9 14 13 12 12 14 14 17 18 19 18 19 20 21 19 17 12 9 7 5 4 7
17 19 21 29 30 18 10 6 8 6 7 6 8 11 11 23 27 23 22 23 20 8 7 11 14 13 11 12 12 14 14 8 8 9 13 13 12 14 17 18 18 19 20 19 16 12 8 6 5 3 3 4 7 8
17 18 21 18 11 9 11 12 7 5 5 5 7 8 7 6 8 13 19 19 9 12 9 13 12 13 16 18 16 15 14 13 12 13 14 15 17 17 16 15 14 15 14 11 8 6 4 2 1 3 5 7 9 11
15 17 13 13 9 9 5 9 6 6 4 3 4 4 5 6 6 8 7 9 10 19 13 16 15 12 15 14 15 17 15 13 16 16 14 15 15 14 13 12 10 9 9 8 5 3 3 5 6 7 9 11 12 11
14 10 10 9 12 4 5 7 6 5 5 4 3 3 3 6 6 7 4 5 12 13 15 10 10 12 14 16 19 18 18 15 16 17 15 12 14 14 12 12 10 9 8 6 4 5 7 9 10 11 12 12 11 11
9 13 9 7 10 6 5 4 5 5 3 3 3 3 2 3 3 3 2 3 11 14 12 11 10 10 12 12 12 13 12 11 11 12 13 11 10 9 9 9 7 6 6 6 7 9 10 11 12 13 12 12 11 11
8 11 6 7 5 4 3 3 3 3 2 3 3 2 3 4 5 3 3 4 9 9 9 9 10 10 13 12 10 10 10 11 7 8 10 7 7 6 6 7 8 9 11 11 11 11 11 11 12 12 11 12 12 12
6 6 8 9 5 4 5 7 7 7 4 4 3 5 3 4 3 3 4 7 7 8 5 6 7 8 9 8 8 8 7 6 6 8 7 6 5 5 7 10 11 12 13 13 14 14 14 14 13 13 13 12 13 14
7 8 4 11 10 12 4 4 4 3 3 7 4 6 3 3 2 4 5 4 5 8 9 11 10 8 7 7 6 4 3 4 6 6 6 8 10 13 16 16 15 15 15 16 16 16 16 16 16 16 16 17 13 9
7 6 6 8 5 7 9 6 4 4 6 4 3 3 4 5 9 9 9 10 8 4 5 5 4 4 6 7 5 7 7 4 3 4 7 9 11 13 15 15 16 17 17 18 17 17 13 13 16 17 17 15 15 13
8 9 4 6 5 4 7 6 9 7 9 11 11 16 18 15 11 6 4 3 3 5 6 4 2 1 4 6 7 6 6 8 10 10 11 14 16 17 17 17 18 20 20 20 20 18 17 17 16 14 13 13 13 15
4 6 6 7 4 5 9 10 12 12 17 15 11 17 14 10 12 10 11 9 3 3 4 5 4 4 3 3 6 9 10 13 14 16 18 19 20 20 20 20 19 17 17 17 18 19 21 21 21 20 17 14 14 16
6 7 3 3 3 7 5 5 6 6 6 8 8 9 8 5 4 3 7 6 4 3 5 6 6 5 6 7 10 13 15 16 18 21 23 23 23 22 21 19 19 20 19 18 17 17 17 17 17 16 16 15 15 18
7 8 7 4 3 2 4 1 3 5 5 4 4 7 6 4 4 2 4 5 5 7 7 7 7 8 11 12 14 17 19 20 21 21 20 19 18 19 19 19 19 18 19 19 18 18 17 15 14 15 16 17 18 20

GFSWCAN_850_spd_033.txt.gz
Wind_Speed
37 40 49 54 55 50 47 48 47 45 45 44 44 42 41 44 45 45 46 27 29 6 15 5 19 18 30 29 13 12 7 3 3 5 4 4 3 6 4 5 7 7 7 4 3 3 7 8 6 8 6 13 24 18
35 38 40 41 41 40 40 38 41 41 41 41 38 41 41 39 37 48 24 28 26 15 9 9 15 22 26 35 28 23 9 9 12 4 0 3 3 2 5 3 2 2 7 6 8 6 4 6 4 8 22 29 22 20
34 35 35 35 34 36 37 37 38 39 40 40 36 37 38 33 36 44 25 26 19 10 21 19 15 23 21 35 36 14 6 12 11 10 5 2 4 4 4 5 4 3 5 4 4 2 4 7 13 24 21 24 21 18
28 30 33 31 32 32 32 33 34 34 36 34 36 36 33 30 36 40 25 25 16 5 4 7 8 17 18 27 36 41 16 17 18 14 4 3 3 6 4 4 5 6 10 7 1 1 5 7 14 22 21 21 22 21
24 26 25 25 26 26 26 26 31 30 32 34 33 30 27 33 37 31 23 24 15 16 3 12 28 6 14 28 36 35 29 25 16 4 3 2 5 4 1 2 1 7 7 6 6 19 9 15 21 22 23 22 20 19
22 23 21 25 26 24 22 25 28 28 29 33 31 31 36 32 31 25 9 21 33 18 3 4 11 10 9 21 33 41 36 27 17 8 3 5 5 5 4 3 3 13 11 14 8 27 11 26 25 23 23 20 18 16
25 21 21 28 25 21 23 28 27 32 32 32 34 34 35 29 25 18 7 10 35 26 5 3 4 4 3 14 18 18 20 11 4 7 3 4 3 6 3 4 5 13 12 13 18 30 19 28 18 22 20 20 19 19
21 23 23 24 24 24 24 23 27 36 32 29 33 30 25 20 19 13 11 15 33 25 5 3 4 6 5 4 6 5 6 6 3 5 4 2 4 2 1 1 14 16 19 23 26 15 24 26 27 24 22 24 24 24
23 25 26 25 22 23 25 28 35 31 30 33 31 26 23 22 15 10 15 21 20 13 4 5 3 3 7 5 6 5 4 2 3 2 2 2 1 3 1 9 20 26 11 23 17 19 27 31 29 27 27 27 28 28
25 25 25 25 25 26 28 29 29 28 31 30 30 13 6 14 18 18 1 1 8 9 5 1 2 1 6 3 3 5 6 2 1 1 5 3 2 4 1 13 21 16 17 26 30 22 28 28 29 29 28 26 25 26
26 25 25 24 25 28 29 30 29 30 31 28 12 5 20 24 22 5 3 4 3 2 2 3 4 2 8 3 3 3 4 3 3 2 4 3 2 2 6 16 17 14 19 20 13 18 23 26 30 30 28 25 24 23
31 28 25 25 28 31 33 28 33 34 29 15 18 24 15 5 7 1 4 2 3 4 2 1 4 3 5 5 3 5 3 2 2 3 3 3 0 10 13 18 19 20 20 14 15 23 22 22 25 28 27 26 23 21
31 34 34 33 31 30 26 34 37 32 17 8 7 6 6 2 3 1 1 1 2 2 4 2 3 3 2 8 5 3 4 0 0 3 1 1 7 15 18 20 19 17 18 23 26 25 24 25 25 24 26 23 22 21
31 31 30 29 31 36 36 30 33 3 5 9 7 5 3 3 3 2 2 1 2 2 7 8 5 3 6 4 2 5 1 1 2 2 2 0 11 17 18 19 21 21 20 21 23 25 27 27 25 22 21 19 16 19
29 30 29 28 33 33 33 18 10 9 5 6 5 4 4 3 2 2 2 3 5 6 6 5 6 5 3 4 3 3 3 3 2 0 2 7 15 17 18 19 20 21 21 23 26 27 25 24 25 21 16 17 17 16
32 30 27 27 24 32 32 19 13 5 6 6 8 4 7 2 5 8 10 9 9 6 6 6 3 3 4 2 4 4 2 3 2 2 4 14 16 16 17 18 20 21 21 23 22 24 25 19 18 19 20 18 15 13
27 28 27 29 28 21 24 11 6 9 8 6 5 15 7 4 7 8 11 10 8 4 3 2 5 5 3 3 4 4 3 4 9 7 4 11 15 17 18 20 19 18 20 22 21 16 16 16 19 19 19 17 14 11
23 18 17 15 16 20 34 18 9 10 9 10 4 12 19 18 12 16 22 17 5 4 5 4 5 6 5 4 3 4 8 11 9 8 6 7 11 14 17 17 17 19 20 16 15 15 16 17 17 16 15 14 12 10
19 15 12 7 10 11 8 12 9 7 11 5 14 15 19 18 28 25 23 22 25 18 9 6 6 4 3 5 6 15 17 15 11 14 12 8 9 12 13 13 14 16 15 15 17 18 18 17 15 14 12 11 9 6
9 10 13 12 9 9 8 7 8 9 6 5 16 24 17 15 20 28 30 29 26 12 10 5 4 8 7 12 13 14 14 10 11 13 16 13 10 9 11 13 15 15 16 17 17 18 17 14 11 9 9 9 8 8
24 24 23 24 31 18 10 6 7 7 8 7 8 12 11 26 33 28 29 26 23 8 7 11 13 13 13 15 16 18 19 13 12 12 11 14 12 12 12 13 15 16 16 15 15 13 11 8 6 5 4 5 6 6
19 20 23 19 12 9 11 13 8 7 6 6 8 7 6 6 9 15 21 19 10 15 10 13 15 15 18 20 19 19 18 17 18 18 16 14 17 17 17 16 13 16 14 12 9 8 6 3 1 2 4 6 8 10
15 16 14 14 10 9 5 9 6 6 4 3 4 4 5 5 6 8 7 10 10 15 16 17 16 16 18 19 20 20 18 17 20 21 19 19 19 18 16 15 14 13 12 11 8 5 4 5 7 8 9 10 11 12
14 11 10 9 13 4 5 6 6 5 5 4 3 3 3 4 6 7 4 5 13 14 14 13 10 13 16 19 22 21 20 17 19 20 18 15 17 18 15 14 12 11 9 7 5 5 6 8 10 11 13 13 13 13
10 13 9 7 10 7 6 5 6 5 3 3 4 3 2 4 3 3 3 4 14 14 15 14 13 14 16 16 17 16 14 14 14 14 16 14 13 11 11 10 9 9 8 8 8 9 10 11 13 14 15 15 14 13
8 12 6 6 4 4 2 3 4 4 3 4 3 3 4 4 5 3 3 5 9 10 11 13 12 13 15 14 13 13 13 11 8 10 13 10 9 9 10 10 10 10 12 12 12 12 12 13 14 14 14 14 14 15
6 5 9 9 5 5 6 8 8 7 5 4 3 4 3 5 3 3 4 6 6 7 6 7 8 9 9 8 8 9 8 7 7 10 10 8 8 10 11 12 12 13 14 15 16 17 17 18 17 17 17 15 15 16
7 8 4 11 10 13 4 4 4 4 3 6 4 6 3 3 2 3 4 6 6 7 8 9 10 11 11 10 9 6 6 8 8 8 9 11 13 14 15 15 15 17 17 18 19 19 19 19 18 19 20 20 19 17
8 8 7 10 7 9 9 4 4 4 7 4 4 2 4 4 7 9 11 7 3 3 4 5 5 7 7 6 6 6 6 6 6 8 9 11 13 15 16 16 17 19 20 20 19 19 17 15 18 19 19 19 18 17
7 6 6 7 5 4 9 6 9 10 13 13 12 19 20 17 12 8 5 4 3 5 6 4 3 2 3 4 4 4 6 8 10 12 15 17 19 19 19 20 21 20 19 20 20 20 19 20 21 21 21 19 17 16
5 5 6 6 5 11 13 13 17 15 16 14 18 21 14 10 12 12 9 7 6 4 4 3 3 3 3 4 6 8 11 14 16 18 19 20 20 20 20 20 20 20 20 20 19 19 20 20 19 19 18 17 15 14
6 6 5 4 4 15 13 5 6 7 5 6 7 9 7 4 3 3 4 4 3 3 4 5 6 7 8 9 12 14 16 18 20 20 20 19 19 19 20 19 18 19 20 20 19 19 19 19 18 18 18 18 17 17
7 12 11 6 4 4 2 2 4 5 5 3 4 4 4 3 3 3 2 2 3 5 5 6 7 9 10 11 14 16 18 19 19 19 18 18 17 17 18 19 19 19 19 19 18 18 18 18 18 18 17 17 16 16

GFSWCAN_850_spd_036.txt.gz
Wind_Speed
12 14 17 22 31 38 36 42 64 64 51 59 63 58 54 52 55 53 45 35 27 9 25 6 25 21 23 32 13 8 8 10 3 6 4 4 3 6 3 4 7 7 7 3 3 3 7 9 5 9 7 3 27 26
11 18 21 24 27 43 62 62 49 47 56 54 53 54 47 49 51 47 34 42 44 15 9 13 10 19 28 30 28 27 12 9 15 4 1 2 2 0 5 4 0 3 6 7 9 7 4 14 6 15 9 13 25 25
36 40 44 46 45 45 44 45 46 48 49 50 52 50 45 44 43 38 35 39 25 8 14 23 15 16 23 25 29 21 22 10 15 14 6 3 4 4 4 5 4 3 4 4 4 5 6 10 16 12 16 22 26 24
32 33 36 38 40 44 44 44 44 44 45 44 43 40 36 35 32 33 37 27 29 6 2 8 6 10 18 22 27 36 21 27 16 12 4 3 3 6 4 4 4 4 9 7 3 4 2 13 17 16 19 21 24 22
30 30 31 33 33 34 35 35 35 36 36 37 37 36 35 36 29 23 35 21 28 11 2 9 21 9 11 20 25 31 36 30 9 3 2 3 4 4 1 1 2 7 7 6 7 15 12 11 22 22 23 24 23 25
24 25 26 28 29 30 31 32 31 33 34 31 34 34 35 32 29 29 14 16 27 17 1 2 6 6 4 15 23 30 37 32 24 7 4 5 5 4 4 4 4 22 17 18 7 19 16 14 25 24 24 22 22 21
23 25 23 24 26 27 29 31 31 33 32 31 30 31 29 31 37 26 5 6 23 14 2 3 3 2 2 4 15 20 31 21 12 7 4 3 3 6 3 5 5 21 16 13 13 25 13 24 18 25 24 24 22 21
28 26 26 25 25 25 27 28 29 31 32 31 31 29 30 36 33 34 12 9 31 21 2 3 4 5 11 4 2 9 11 10 3 6 3 2 3 1 3 2 7 15 16 18 25 17 17 27 27 27 24 25 24 24
23 24 24 25 25 24 30 31 33 34 35 29 33 39 29 20 18 22 14 20 24 8 8 5 2 2 2 3 2 2 5 2 4 2 1 2 1 5 1 2 11 17 14 22 18 13 22 29 32 30 28 27 28 29
23 23 23 23 26 35 35 32 35 39 40 39 36 12 7 12 9 17 15 12 8 9 5 3 2 1 0 5 4 2 5 2 2 1 5 2 3 1 1 4 14 16 12 24 27 20 27 30 31 30 28 27 26 29
23 22 25 28 30 35 34 37 41 44 41 29 6 5 12 20 13 7 6 8 5 3 8 7 8 2 3 2 3 6 3 1 3 2 4 0 3 2 1 12 13 13 16 19 13 16 22 27 34 33 31 29 29 29
22 21 23 27 31 31 31 36 39 30 18 8 10 20 17 6 3 3 1 2 2 3 2 2 5 9 7 2 2 5 4 1 1 6 3 3 1 1 10 14 17 15 14 8 9 20 21 23 25 27 28 28 26 28
22 21 20 24 26 27 25 29 24 16 19 7 6 5 2 2 3 3 1 1 1 2 2 2 1 3 5 4 2 1 4 3 3 3 2 1 5 9 13 13 14 13 12 16 21 22 24 24 24 25 27 24 26 25
20 20 20 23 21 23 20 26 14 11 8 2 4 5 5 4 4 2 2 1 1 3 3 2 3 2 3 3 2 4 1 2 3 2 3 3 4 7 10 13 16 17 17 21 22 22 22 22 24 24 25 23 21 23
22 22 22 21 23 21 18 24 14 7 2 4 6 4 4 4 3 3 3 3 11 10 5 0 5 5 3 3 2 2 3 4 5 3 3 6 6 9 12 14 17 19 19 18 18 20 24 25 26 24 22 22 18 17
25 23 18 21 23 24 23 20 7 10 6 7 10 4 7 2 9 14 18 12 16 8 4 7 3 3 5 3 5 6 4 4 3 3 12 1 8 10 12 14 15 16 16 18 22 25 24 22 22 23 20 17 15 15
25 22 22 20 23 21 15 14 2 9 9 6 5 20 12 6 8 11 15 19 13 6 3 3 6 4 3 4 5 5 4 4 16 14 6 2 5 9 12 15 16 17 20 21 21 20 20 20 18 18 18 16 15 13
26 26 24 29 33 24 20 9 7 9 9 12 5 16 20 20 17 18 23 23 7 5 5 5 6 7 5 4 3 5 8 19 14 18 13 9 8 12 15 17 17 18 20 19 17 16 16 16 15 16 15 15 13 11
27 24 25 31 21 7 6 11 10 7 15 8 16 16 18 18 28 27 22 19 25 17 9 7 6 4 4 5 7 15 18 13 10 19 22 17 15 15 15 15 15 14 13 14 15 15 15 12 12 12 11 9 8 7
20 18 16 17 11 6 7 7 7 9 7 7 17 25 17 15 21 29 36 30 23 11 10 5 4 8 7 12 13 14 15 10 12 22 24 21 18 14 14 14 15 15 15 15 14 13 12 12 10 8 7 7 5 5
25 28 25 25 21 12 9 6 8 8 9 7 10 13 13 27 34 30 30 26 25 10 8 14 14 13 14 15 17 20 23 22 23 21 19 23 20 20 19 17 15 15 16 16 15 14 11 10 8 4 1 2 3 5
26 28 27 19 11 9 11 13 8 8 6 6 6 6 6 6 9 16 21 20 11 16 11 13 16 17 20 22 22 23 23 23 23 23 21 20 23 23 23 21 18 20 19 17 14 12 10 8 6 5 5 7 9 10
15 16 12 11 9 9 5 9 6 6 4 3 4 4 5 5 6 9 8 10 10 16 12 14 15 18 21 22 23 24 23 23 26 26 24 24 24 22 20 20 18 16 15 14 11 9 8 9 9 10 10 11 12 13
12 10 9 8 10 3 5 7 5 5 5 4 3 3 4 5 7 8 4 5 13 15 15 13 12 15 18 20 24 23 22 19 21 22 21 18 19 20 18 17 15 14 13 10 9 9 9 10 12 13 14 15 15 14
10 13 9 7 8 7 6 5 5 5 4 3 4 3 2 4 3 3 2 3 12 14 14 14 14 16 18 18 17 17 16 14 14 16 18 16 15 13 13 13 13 13 12 10 10 12 13 14 15 16 16 16 16 16
8 12 6 5 4 5 1 3 3 2 2 4 4 3 4 4 5 3 2 4 7 9 10 11 11 12 15 15 14 14 15 13 11 13 15 13 13 13 13 12 12 12 14 15 16 16 16 17 18 18 17 16 16 17
6 5 9 10 5 7 6 8 7 7 4 4 2 4 4 5 2 3 4 4 5 6 7 8 9 9 9 9 11 12 11 9 9 12 11 11 12 12 13 13 14 15 16 17 18 19 20 20 19 19 19 19 19 19
7 9 5 11 11 14 4 4 4 4 2 5 5 5 4 3 2 3 4 6 7 7 7 8 9 10 10 8 8 8 7 9 9 9 10 11 12 14 14 15 15 16 17 19 19 19 19 19 19 20 21 22 22 21
8 6 6 10 8 10 10 5 4 5 6 3 4 2 3 4 5 9 12 5 3 2 3 4 4 7 7 6 6 6 7 7 7 7 10 13 14 15 15 15 16 16 16 16 16 17 18 18 19 20 22 23 22 21
7 8 7 7 5 5 9 6 9 11 11 12 11 17 17 14 12 10 8 6 3 3 4 5 5 4 2 3 4 4 5 7 11 13 15 16 16 16 16 16 16 17 17 18 18 18 17 17 17 17 18 18 18 16
5 6 7 7 6 7 14 17 17 18 20 16 20 20 13 10 10 8 5 4 4 4 4 2 2 3 4 5 6 9 11 13 14 15 15 15 15 15 16 17 17 18 18 19 19 19 19 19 19 19 19 19 18 17
8 6 6 4 4 16 9 5 5 6 4 4 5 6 6 4 3 5 3 3 3 2 2 3 4 5 7 9 10 11 13 15 16 15 15 15 15 16 16 18 18 18 17 17 17 17 18 18 18 18 18 17 17 17
11 16 14 8 6 7 6 5 4 4 4 3 3 3 2 2 3 6 5 3 1 2 3 5 6 7 9 10 11 13 14 15 15 16 16 16 16 17 18 18 17 16 15 16 16 16 16 16 16 17 17 17 17 17